Time,TemperatureF,DewpointF,PressureIn,WindDirection,WindDirectionDegrees,WindSpeedMPH,WindSpeedGustMPH,Humidity,HourlyPrecipIn,Conditions,Clouds,dailyrainin,SoftwareType,DateUTC
2013-07-09 00:00:00,58.8,39.2,30.00,West,274,3.0,4.0,48,0.00,,---,0.09,VWS V14.01,2013-07-09 06:00:00,
2013-07-09 00:01:00,58.9,39.3,30.00,West,274,0.0,1.0,48,0.00,,---,0.00,VWS V14.01,2013-07-09 06:01:00,
2013-07-09 00:02:00,58.9,39.3,30.00,West,274,0.0,2.0,48,0.00,,---,0.00,VWS V14.01,2013-07-09 06:02:00,
2013-07-09 00:03:00,58.9,39.3,30.00,West,274,0.0,1.0,48,0.00,,---,0.00,VWS V14.01,2013-07-09 06:03:00,
2013-07-09 00:04:00,58.9,39.3,30.00,West,274,1.0,1.0,48,0.00,,---,0.00,VWS V14.01,2013-07-09 06:04:00,
2013-07-09 00:05:00,58.9,39.3,30.00,West,274,0.0,0.0,48,0.00,,---,0.00,VWS V14.01,2013-07-09 06:05:00,
2013-07-09 00:06:00,58.8,39.2,30.00,West,274,0.0,2.0,48,0.00,,---,0.00,VWS V14.01,2013-07-09 06:06:00,
2013-07-09 00:07:00,58.8,39.2,30.00,West,274,4.0,4.0,48,0.00,,---,0.00,VWS V14.01,2013-07-09 06:07:00,
2013-07-09 00:08:00,58.8,39.2,30.00,West,274,0.0,4.0,48,0.00,,---,0.00,VWS V14.01,2013-07-09 06:08:00,
2013-07-09 00:09:00,58.7,38.5,30.00,West,274,0.0,1.0,47,0.00,,---,0.00,VWS V14.01,2013-07-09 06:09:00,
2013-07-09 00:10:00,58.8,38.6,30.00,West,274,0.0,1.0,47,0.00,,---,0.00,VWS V14.01,2013-07-09 06:10:00,
2013-07-09 00:11:00,58.7,39.1,30.00,West,274,0.0,2.0,48,0.00,,---,0.00,VWS V14.01,2013-07-09 06:11:00,
2013-07-09 00:12:00,58.6,39.0,30.00,West,274,1.0,2.0,48,0.00,,---,0.00,VWS V14.01,2013-07-09 06:12:00,
2013-07-09 00:13:00,58.6,39.0,30.00,West,274,1.0,3.0,48,0.00,,---,0.00,VWS V14.01,2013-07-09 06:13:00,
2013-07-09 00:14:00,58.6,39.0,30.00,West,274,2.0,5.0,48,0.00,,---,0.00,VWS V14.01,2013-07-09 06:14:00,
2013-07-09 00:15:00,58.6,39.0,30.00,West,274,2.0,5.0,48,0.00,,---,0.00,VWS V14.01,2013-07-09 06:15:00,
2013-07-09 00:16:00,58.6,39.0,30.00,West,274,0.0,4.0,48,0.00,,---,0.00,VWS V14.01,2013-07-09 06:16:00,
2013-07-09 00:17:00,58.6,39.0,30.00,West,274,2.0,6.0,48,0.00,,---,0.00,VWS V14.01,2013-07-09 06:17:00,
2013-07-09 00:18:00,58.6,39.0,30.00,West,274,1.0,5.0,48,0.00,,---,0.00,VWS V14.01,2013-07-09 06:18:00,
2013-07-09 00:19:00,58.6,39.0,30.00,West,274,5.0,5.0,48,0.00,,---,0.00,VWS V14.01,2013-07-09 06:19:00,
2013-07-09 00:20:00,58.6,39.0,30.00,West,274,2.0,4.0,48,0.00,,---,0.00,VWS V14.01,2013-07-09 06:20:00,
2013-07-09 00:21:00,58.6,39.0,30.01,West,274,3.0,6.0,48,0.00,,---,0.00,VWS V14.01,2013-07-09 06:21:00,
2013-07-09 00:22:00,58.7,38.5,30.00,West,274,1.0,4.0,47,0.00,,---,0.00,VWS V14.01,2013-07-09 06:22:00,
2013-07-09 00:23:00,58.7,38.5,30.00,West,274,5.0,6.0,47,0.00,,---,0.00,VWS V14.01,2013-07-09 06:23:00,
2013-07-09 00:24:00,58.8,38.6,30.00,West,274,3.0,5.0,47,0.00,,---,0.00,VWS V14.01,2013-07-09 06:24:00,
2013-07-09 00:25:00,58.8,38.6,30.00,West,274,2.0,6.0,47,0.00,,---,0.00,VWS V14.01,2013-07-09 06:25:00,
2013-07-09 00:26:00,58.8,38.6,30.00,West,274,3.0,6.0,47,0.00,,---,0.00,VWS V14.01,2013-07-09 06:26:00,
2013-07-09 00:27:00,58.9,38.7,30.00,West,274,4.0,6.0,47,0.00,,---,0.00,VWS V14.01,2013-07-09 06:27:00,
2013-07-09 00:28:00,59.0,38.8,30.00,West,274,6.0,7.0,47,0.00,,---,0.00,VWS V14.01,2013-07-09 06:28:00,
2013-07-09 00:29:00,59.0,38.8,30.00,West,274,5.0,7.0,47,0.00,,---,0.00,VWS V14.01,2013-07-09 06:29:00,
2013-07-09 00:30:00,59.0,38.8,30.00,West,259,5.0,6.0,47,0.00,,---,0.00,VWS V14.01,2013-07-09 06:30:00,
2013-07-09 00:31:00,59.0,38.8,30.00,West,259,5.0,6.0,47,0.00,,---,0.00,VWS V14.01,2013-07-09 06:31:00,
2013-07-09 00:32:00,59.1,38.4,30.00,West,259,6.0,6.0,46,0.00,,---,0.00,VWS V14.01,2013-07-09 06:32:00,
2013-07-09 00:33:00,59.1,38.4,30.00,West,259,4.0,6.0,46,0.00,,---,0.00,VWS V14.01,2013-07-09 06:33:00,
2013-07-09 00:34:00,59.2,38.5,30.00,West,277,6.0,7.0,46,0.00,,---,0.00,VWS V14.01,2013-07-09 06:34:00,
2013-07-09 00:35:00,59.2,38.5,30.00,West,274,7.0,7.0,46,0.00,,---,0.00,VWS V14.01,2013-07-09 06:35:00,
2013-07-09 00:36:00,59.2,38.5,30.00,West,276,6.0,7.0,46,0.00,,---,0.00,VWS V14.01,2013-07-09 06:36:00,
2013-07-09 00:37:00,59.2,38.5,30.00,West,263,6.0,6.0,46,0.00,,---,0.00,VWS V14.01,2013-07-09 06:37:00,
2013-07-09 00:38:00,59.2,38.5,30.00,WNW,286,6.0,7.0,46,0.00,,---,0.00,VWS V14.01,2013-07-09 06:38:00,
2013-07-09 00:39:00,59.2,38.5,30.00,WNW,282,4.0,7.0,46,0.00,,---,0.00,VWS V14.01,2013-07-09 06:39:00,
2013-07-09 00:40:00,59.2,38.5,30.00,West,271,5.0,7.0,46,0.00,,---,0.00,VWS V14.01,2013-07-09 06:40:00,
2013-07-09 00:41:00,59.2,38.5,30.00,West,271,5.0,7.0,46,0.00,,---,0.00,VWS V14.01,2013-07-09 06:41:00,
2013-07-09 00:42:00,59.2,38.5,30.00,West,273,5.0,7.0,46,0.00,,---,0.00,VWS V14.01,2013-07-09 06:42:00,
2013-07-09 00:43:00,59.2,38.5,30.00,West,273,5.0,6.0,46,0.00,,---,0.00,VWS V14.01,2013-07-09 06:43:00,
2013-07-09 00:44:00,59.3,38.5,30.00,West,273,5.0,6.0,46,0.00,,---,0.00,VWS V14.01,2013-07-09 06:44:00,
2013-07-09 00:45:00,59.3,38.5,30.00,West,273,5.0,5.0,46,0.00,,---,0.00,VWS V14.01,2013-07-09 06:45:00,
2013-07-09 00:46:00,59.3,38.5,30.00,West,273,5.0,5.0,46,0.00,,---,0.00,VWS V14.01,2013-07-09 06:46:00,
2013-07-09 00:47:00,59.3,38.5,30.00,West,273,3.0,5.0,46,0.00,,---,0.00,VWS V14.01,2013-07-09 06:47:00,
2013-07-09 00:48:00,59.3,38.5,29.99,West,273,5.0,5.0,46,0.00,,---,0.00,VWS V14.01,2013-07-09 06:48:00,
2013-07-09 00:49:00,59.3,38.5,29.99,West,273,1.0,5.0,46,0.00,,---,0.00,VWS V14.01,2013-07-09 06:49:00,
2013-07-09 00:50:00,59.2,38.5,29.99,West,273,5.0,5.0,46,0.00,,---,0.00,VWS V14.01,2013-07-09 06:50:00,
2013-07-09 00:51:00,59.2,38.5,29.99,West,273,5.0,5.0,46,0.00,,---,0.00,VWS V14.01,2013-07-09 06:51:00,
2013-07-09 00:52:00,59.2,37.9,29.99,West,273,2.0,5.0,45,0.00,,---,0.00,VWS V14.01,2013-07-09 06:52:00,
2013-07-09 00:53:00,59.2,37.9,29.99,West,273,5.0,5.0,45,0.00,,---,0.00,VWS V14.01,2013-07-09 06:53:00,
2013-07-09 00:54:00,59.3,38.0,29.99,West,273,5.0,6.0,45,0.00,,---,0.00,VWS V14.01,2013-07-09 06:54:00,
2013-07-09 00:55:00,59.3,38.0,29.99,West,273,2.0,5.0,45,0.00,,---,0.00,VWS V14.01,2013-07-09 06:55:00,
2013-07-09 00:56:00,59.3,38.0,29.99,West,273,2.0,5.0,45,0.00,,---,0.00,VWS V14.01,2013-07-09 06:56:00,
2013-07-09 00:57:00,59.3,38.5,29.99,West,273,0.0,1.0,46,0.00,,---,0.00,VWS V14.01,2013-07-09 06:57:00,
2013-07-09 00:58:00,59.3,38.5,29.99,West,273,1.0,3.0,46,0.00,,---,0.00,VWS V14.01,2013-07-09 06:58:00,
2013-07-09 00:59:00,59.2,38.5,29.99,West,273,5.0,5.0,46,0.00,,---,0.00,VWS V14.01,2013-07-09 06:59:00,
2013-07-09 01:00:00,59.2,38.5,29.99,West,273,2.0,5.0,46,0.00,,---,0.00,VWS V14.01,2013-07-09 07:00:00,
2013-07-09 01:01:00,59.2,38.5,29.99,West,273,2.0,5.0,46,0.00,,---,0.00,VWS V14.01,2013-07-09 07:01:00,
2013-07-09 01:02:00,59.1,38.4,29.99,West,273,1.0,1.0,46,0.00,,---,0.00,VWS V14.01,2013-07-09 07:02:00,
2013-07-09 01:03:00,59.0,37.7,29.99,WNW,293,3.0,4.0,45,0.00,,---,0.00,VWS V14.01,2013-07-09 07:03:00,
2013-07-09 01:04:00,59.0,38.3,29.99,WNW,292,0.0,5.0,46,0.00,,---,0.00,VWS V14.01,2013-07-09 07:04:00,
2013-07-09 01:05:00,59.0,37.7,29.99,WNW,292,0.0,0.0,45,0.00,,---,0.00,VWS V14.01,2013-07-09 07:05:00,
2013-07-09 01:06:00,59.0,37.7,29.99,WNW,292,0.0,0.0,45,0.00,,---,0.00,VWS V14.01,2013-07-09 07:06:00,
2013-07-09 01:07:00,59.0,37.7,29.99,WNW,292,0.0,0.0,45,0.00,,---,0.00,VWS V14.01,2013-07-09 07:07:00,
2013-07-09 01:08:00,59.0,37.1,29.99,WNW,292,0.0,0.0,44,0.00,,---,0.00,VWS V14.01,2013-07-09 07:08:00,
2013-07-09 01:09:00,59.0,36.6,29.99,WNW,292,3.0,4.0,43,0.00,,---,0.00,VWS V14.01,2013-07-09 07:09:00,
2013-07-09 01:10:00,59.0,36.6,29.99,WNW,292,2.0,3.0,43,0.00,,---,0.00,VWS V14.01,2013-07-09 07:10:00,
2013-07-09 01:11:00,59.0,36.6,29.99,WNW,292,2.0,3.0,43,0.00,,---,0.00,VWS V14.01,2013-07-09 07:11:00,
2013-07-09 01:12:00,59.0,37.7,29.99,WNW,292,0.0,2.0,45,0.00,,---,0.00,VWS V14.01,2013-07-09 07:12:00,
2013-07-09 01:13:00,59.1,37.8,29.99,WNW,292,1.0,1.0,45,0.00,,---,0.00,VWS V14.01,2013-07-09 07:13:00,
2013-07-09 01:14:00,59.1,38.4,29.99,WNW,292,1.0,1.0,46,0.00,,---,0.00,VWS V14.01,2013-07-09 07:14:00,
2013-07-09 01:15:00,59.0,38.3,30.00,WNW,292,0.0,1.0,46,0.00,,---,0.00,VWS V14.01,2013-07-09 07:15:00,
2013-07-09 01:16:00,59.0,38.3,30.00,WNW,292,0.0,1.0,46,0.00,,---,0.00,VWS V14.01,2013-07-09 07:16:00,
2013-07-09 01:17:00,59.0,38.3,30.00,WNW,293,0.0,2.0,46,0.00,,---,0.00,VWS V14.01,2013-07-09 07:17:00,
2013-07-09 01:18:00,59.0,38.3,30.00,WNW,293,1.0,1.0,46,0.00,,---,0.00,VWS V14.01,2013-07-09 07:18:00,
2013-07-09 01:19:00,59.0,38.8,30.00,WNW,293,4.0,4.0,47,0.00,,---,0.00,VWS V14.01,2013-07-09 07:19:00,
2013-07-09 01:20:00,59.0,38.8,30.00,WNW,293,1.0,4.0,47,0.00,,---,0.00,VWS V14.01,2013-07-09 07:20:00,
2013-07-09 01:21:00,59.0,38.8,30.00,WNW,293,1.0,4.0,47,0.00,,---,0.00,VWS V14.01,2013-07-09 07:21:00,
2013-07-09 01:22:00,58.9,37.0,29.99,WNW,293,0.0,0.0,44,0.00,,---,0.00,VWS V14.01,2013-07-09 07:22:00,
2013-07-09 01:23:00,58.9,37.0,29.99,WNW,293,0.0,0.0,44,0.00,,---,0.00,VWS V14.01,2013-07-09 07:23:00,
2013-07-09 01:24:00,58.9,37.0,29.99,WNW,293,0.0,1.0,44,0.00,,---,0.00,VWS V14.01,2013-07-09 07:24:00,
2013-07-09 01:25:00,58.9,37.6,29.99,WNW,293,0.0,1.0,45,0.00,,---,0.00,VWS V14.01,2013-07-09 07:25:00,
2013-07-09 01:26:00,58.9,37.6,29.99,WNW,293,0.0,1.0,45,0.00,,---,0.00,VWS V14.01,2013-07-09 07:26:00,
2013-07-09 01:27:00,58.9,37.0,29.99,WNW,293,0.0,0.0,44,0.00,,---,0.00,VWS V14.01,2013-07-09 07:27:00,
2013-07-09 01:28:00,58.9,37.0,29.99,WNW,293,0.0,0.0,44,0.00,,---,0.00,VWS V14.01,2013-07-09 07:28:00,
2013-07-09 01:29:00,58.9,37.0,29.99,WNW,293,1.0,2.0,44,0.00,,---,0.00,VWS V14.01,2013-07-09 07:29:00,
2013-07-09 01:30:00,58.9,37.0,29.99,WNW,293,0.0,1.0,44,0.00,,---,0.00,VWS V14.01,2013-07-09 07:30:00,
2013-07-09 01:31:00,58.9,37.0,29.99,WNW,293,0.0,1.0,44,0.00,,---,0.00,VWS V14.01,2013-07-09 07:31:00,
2013-07-09 01:32:00,58.9,37.0,29.99,WNW,293,0.0,0.0,44,0.00,,---,0.00,VWS V14.01,2013-07-09 07:32:00,
2013-07-09 01:33:00,59.0,37.1,29.99,WNW,293,0.0,1.0,44,0.00,,---,0.00,VWS V14.01,2013-07-09 07:33:00,
2013-07-09 01:34:00,59.0,37.1,29.99,WNW,293,0.0,0.0,44,0.00,,---,0.00,VWS V14.01,2013-07-09 07:34:00,
2013-07-09 01:35:00,59.0,37.1,29.99,WNW,293,0.0,0.0,44,0.00,,---,0.00,VWS V14.01,2013-07-09 07:35:00,
2013-07-09 01:36:00,59.0,37.1,29.99,WNW,293,0.0,0.0,44,0.00,,---,0.00,VWS V14.01,2013-07-09 07:36:00,
2013-07-09 01:37:00,59.0,37.1,29.99,WNW,293,0.0,0.0,44,0.00,,---,0.00,VWS V14.01,2013-07-09 07:37:00,
2013-07-09 01:38:00,59.0,36.6,29.99,WNW,293,0.0,0.0,43,0.00,,---,0.00,VWS V14.01,2013-07-09 07:38:00,
2013-07-09 01:39:00,59.0,36.6,29.99,WNW,293,0.0,0.0,43,0.00,,---,0.00,VWS V14.01,2013-07-09 07:39:00,
2013-07-09 01:40:00,59.0,37.1,29.99,WNW,293,0.0,1.0,44,0.00,,---,0.00,VWS V14.01,2013-07-09 07:40:00,
2013-07-09 01:41:00,59.0,37.1,29.99,WNW,293,0.0,1.0,44,0.00,,---,0.00,VWS V14.01,2013-07-09 07:41:00,
2013-07-09 01:42:00,58.9,36.5,29.99,WNW,293,0.0,0.0,43,0.00,,---,0.00,VWS V14.01,2013-07-09 07:42:00,
2013-07-09 01:43:00,58.9,36.5,29.99,WNW,293,0.0,0.0,43,0.00,,---,0.00,VWS V14.01,2013-07-09 07:43:00,
2013-07-09 01:44:00,58.8,36.4,29.99,WNW,293,0.0,0.0,43,0.00,,---,0.00,VWS V14.01,2013-07-09 07:44:00,
2013-07-09 01:45:00,58.7,36.3,29.99,WNW,293,0.0,1.0,43,0.00,,---,0.00,VWS V14.01,2013-07-09 07:45:00,
2013-07-09 01:46:00,58.7,36.3,29.99,WNW,293,0.0,1.0,43,0.00,,---,0.00,VWS V14.01,2013-07-09 07:46:00,
2013-07-09 01:47:00,58.7,36.3,30.00,WNW,293,0.0,1.0,43,0.00,,---,0.00,VWS V14.01,2013-07-09 07:47:00,
2013-07-09 01:48:00,58.7,36.3,30.00,WNW,293,1.0,1.0,43,0.00,,---,0.00,VWS V14.01,2013-07-09 07:48:00,
2013-07-09 01:49:00,58.7,36.3,30.00,WNW,293,0.0,1.0,43,0.00,,---,0.00,VWS V14.01,2013-07-09 07:49:00,
2013-07-09 01:50:00,58.7,36.3,30.00,WNW,293,1.0,2.0,43,0.00,,---,0.00,VWS V14.01,2013-07-09 07:50:00,
2013-07-09 01:51:00,58.7,35.7,29.99,WNW,293,0.0,1.0,42,0.00,,---,0.00,VWS V14.01,2013-07-09 07:51:00,
2013-07-09 01:52:00,58.7,35.7,29.99,WNW,293,0.0,1.0,42,0.00,,---,0.00,VWS V14.01,2013-07-09 07:52:00,
2013-07-09 01:53:00,58.8,35.8,29.99,WNW,293,4.0,4.0,42,0.00,,---,0.00,VWS V14.01,2013-07-09 07:53:00,
2013-07-09 01:54:00,58.9,35.9,30.00,WNW,293,0.0,4.0,42,0.00,,---,0.00,VWS V14.01,2013-07-09 07:54:00,
2013-07-09 01:55:00,58.9,35.9,30.00,WNW,294,1.0,3.0,42,0.00,,---,0.00,VWS V14.01,2013-07-09 07:55:00,
2013-07-09 01:56:00,59.0,36.0,29.99,WNW,294,2.0,2.0,42,0.00,,---,0.00,VWS V14.01,2013-07-09 07:56:00,
2013-07-09 01:57:00,59.0,36.0,29.99,WNW,294,2.0,2.0,42,0.00,,---,0.00,VWS V14.01,2013-07-09 07:57:00,
2013-07-09 01:58:00,59.2,36.1,29.99,WNW,294,4.0,6.0,42,0.00,,---,0.00,VWS V14.01,2013-07-09 07:58:00,
2013-07-09 01:59:00,59.2,36.1,29.99,WNW,294,4.0,5.0,42,0.00,,---,0.00,VWS V14.01,2013-07-09 07:59:00,
2013-07-09 02:00:00,59.3,36.2,29.99,WNW,294,2.0,4.0,42,0.00,,---,0.00,VWS V14.01,2013-07-09 08:00:00,
2013-07-09 02:01:00,59.3,36.2,29.99,WNW,294,4.0,4.0,42,0.00,,---,0.00,VWS V14.01,2013-07-09 08:01:00,
2013-07-09 02:02:00,59.3,36.2,30.00,WNW,294,2.0,4.0,42,0.00,,---,0.00,VWS V14.01,2013-07-09 08:02:00,
2013-07-09 02:03:00,59.4,36.3,29.99,WNW,294,0.0,3.0,42,0.00,,---,0.00,VWS V14.01,2013-07-09 08:03:00,
2013-07-09 02:04:00,59.5,36.4,29.99,WNW,294,0.0,2.0,42,0.00,,---,0.00,VWS V14.01,2013-07-09 08:04:00,
2013-07-09 02:05:00,59.5,36.4,29.99,WNW,294,1.0,2.0,42,0.00,,---,0.00,VWS V14.01,2013-07-09 08:05:00,
2013-07-09 02:06:00,59.5,36.4,29.99,WNW,294,0.0,1.0,42,0.00,,---,0.00,VWS V14.01,2013-07-09 08:06:00,
2013-07-09 02:07:00,59.5,36.4,29.99,WNW,294,0.0,1.0,42,0.00,,---,0.00,VWS V14.01,2013-07-09 08:07:00,
2013-07-09 02:08:00,59.5,36.4,29.99,WNW,294,0.0,0.0,42,0.00,,---,0.00,VWS V14.01,2013-07-09 08:08:00,
2013-07-09 02:09:00,59.5,36.4,29.99,WNW,293,2.0,4.0,42,0.00,,---,0.00,VWS V14.01,2013-07-09 08:09:00,
2013-07-09 02:10:00,59.5,36.4,30.00,WNW,293,0.0,2.0,42,0.00,,---,0.00,VWS V14.01,2013-07-09 08:10:00,
2013-07-09 02:11:00,59.5,36.4,29.99,WNW,293,0.0,1.0,42,0.00,,---,0.00,VWS V14.01,2013-07-09 08:11:00,
2013-07-09 02:12:00,59.5,36.4,29.99,WNW,293,2.0,2.0,42,0.00,,---,0.00,VWS V14.01,2013-07-09 08:12:00,
2013-07-09 02:13:00,59.5,36.4,29.99,WNW,293,0.0,1.0,42,0.00,,---,0.00,VWS V14.01,2013-07-09 08:13:00,
2013-07-09 02:14:00,59.5,36.4,29.99,WNW,293,0.0,0.0,42,0.00,,---,0.00,VWS V14.01,2013-07-09 08:14:00,
2013-07-09 02:15:00,59.5,36.4,29.99,WNW,293,0.0,0.0,42,0.00,,---,0.00,VWS V14.01,2013-07-09 08:15:00,
2013-07-09 02:16:00,59.5,36.4,29.99,WNW,293,0.0,1.0,42,0.00,,---,0.00,VWS V14.01,2013-07-09 08:16:00,
2013-07-09 02:17:00,59.5,36.4,29.99,WNW,293,1.0,1.0,42,0.00,,---,0.00,VWS V14.01,2013-07-09 08:17:00,
2013-07-09 02:18:00,59.5,36.4,29.99,WNW,293,0.0,0.0,42,0.00,,---,0.00,VWS V14.01,2013-07-09 08:18:00,
2013-07-09 02:19:00,59.5,36.4,30.00,WSW,253,6.0,7.0,42,0.00,,---,0.00,VWS V14.01,2013-07-09 08:19:00,
2013-07-09 02:20:00,59.4,36.3,30.00,WSW,253,0.0,6.0,42,0.00,,---,0.00,VWS V14.01,2013-07-09 08:20:00,
2013-07-09 02:21:00,59.3,36.2,30.00,WSW,253,0.0,1.0,42,0.00,,---,0.00,VWS V14.01,2013-07-09 08:21:00,
2013-07-09 02:22:00,59.3,36.2,30.00,WSW,253,0.0,0.0,42,0.00,,---,0.00,VWS V14.01,2013-07-09 08:22:00,
2013-07-09 02:23:00,59.3,36.2,30.00,WSW,253,0.0,0.0,42,0.00,,---,0.00,VWS V14.01,2013-07-09 08:23:00,
2013-07-09 02:24:00,59.1,36.7,30.00,WSW,253,0.0,0.0,43,0.00,,---,0.00,VWS V14.01,2013-07-09 08:24:00,
2013-07-09 02:25:00,59.1,36.7,30.00,WSW,253,0.0,0.0,43,0.00,,---,0.00,VWS V14.01,2013-07-09 08:25:00,
2013-07-09 02:26:00,59.0,36.6,29.99,WSW,253,0.0,0.0,43,0.00,,---,0.00,VWS V14.01,2013-07-09 08:26:00,
2013-07-09 02:27:00,59.0,36.6,30.00,WSW,253,0.0,0.0,43,0.00,,---,0.00,VWS V14.01,2013-07-09 08:27:00,
2013-07-09 02:28:00,59.0,36.6,29.99,WSW,253,0.0,0.0,43,0.00,,---,0.00,VWS V14.01,2013-07-09 08:28:00,
2013-07-09 02:29:00,58.9,37.0,30.00,WSW,253,1.0,5.0,44,0.00,,---,0.00,VWS V14.01,2013-07-09 08:29:00,
2013-07-09 02:30:00,58.7,36.9,29.99,WSW,253,0.0,1.0,44,0.00,,---,0.00,VWS V14.01,2013-07-09 08:30:00,
2013-07-09 02:31:00,58.6,36.8,29.99,WSW,253,0.0,0.0,44,0.00,,---,0.00,VWS V14.01,2013-07-09 08:31:00,
2013-07-09 02:32:00,58.6,36.8,29.99,WSW,253,0.0,0.0,44,0.00,,---,0.00,VWS V14.01,2013-07-09 08:32:00,
2013-07-09 02:33:00,58.6,36.8,29.99,WSW,253,0.0,0.0,44,0.00,,---,0.00,VWS V14.01,2013-07-09 08:33:00,
2013-07-09 02:34:00,58.4,36.6,29.99,WSW,253,0.0,1.0,44,0.00,,---,0.00,VWS V14.01,2013-07-09 08:34:00,
2013-07-09 02:35:00,58.4,36.6,29.99,WSW,253,1.0,1.0,44,0.00,,---,0.00,VWS V14.01,2013-07-09 08:35:00,
2013-07-09 02:36:00,58.3,36.5,29.99,WSW,253,0.0,2.0,44,0.00,,---,0.00,VWS V14.01,2013-07-09 08:36:00,
2013-07-09 02:37:00,58.3,36.5,29.99,WSW,253,1.0,1.0,44,0.00,,---,0.00,VWS V14.01,2013-07-09 08:37:00,
2013-07-09 02:38:00,58.3,36.5,29.99,WSW,253,1.0,1.0,44,0.00,,---,0.00,VWS V14.01,2013-07-09 08:38:00,
2013-07-09 02:39:00,58.3,37.1,30.00,WSW,253,1.0,2.0,45,0.00,,---,0.00,VWS V14.01,2013-07-09 08:39:00,
2013-07-09 02:40:00,58.2,37.0,29.99,WSW,253,1.0,2.0,45,0.00,,---,0.00,VWS V14.01,2013-07-09 08:40:00,
2013-07-09 02:41:00,58.1,36.9,29.99,WSW,253,1.0,1.0,45,0.00,,---,0.00,VWS V14.01,2013-07-09 08:41:00,
2013-07-09 02:42:00,58.1,36.9,29.99,WSW,253,0.0,2.0,45,0.00,,---,0.00,VWS V14.01,2013-07-09 08:42:00,
2013-07-09 02:43:00,58.1,36.9,29.99,WSW,253,1.0,2.0,45,0.00,,---,0.00,VWS V14.01,2013-07-09 08:43:00,
2013-07-09 02:44:00,58.0,36.8,29.99,WSW,253,0.0,1.0,45,0.00,,---,0.00,VWS V14.01,2013-07-09 08:44:00,
2013-07-09 02:45:00,58.0,36.8,29.99,WSW,253,0.0,0.0,45,0.00,,---,0.00,VWS V14.01,2013-07-09 08:45:00,
2013-07-09 02:46:00,57.9,36.7,29.99,WSW,253,0.0,1.0,45,0.00,,---,0.00,VWS V14.01,2013-07-09 08:46:00,
2013-07-09 02:47:00,57.9,36.7,29.99,WSW,253,1.0,1.0,45,0.00,,---,0.00,VWS V14.01,2013-07-09 08:47:00,
2013-07-09 02:48:00,57.9,36.7,29.99,WSW,253,1.0,1.0,45,0.00,,---,0.00,VWS V14.01,2013-07-09 08:48:00,
2013-07-09 02:49:00,58.0,36.8,29.99,WSW,253,0.0,1.0,45,0.00,,---,0.00,VWS V14.01,2013-07-09 08:49:00,
2013-07-09 02:50:00,58.0,36.8,30.00,WSW,253,4.0,5.0,45,0.00,,---,0.00,VWS V14.01,2013-07-09 08:50:00,
2013-07-09 02:51:00,58.0,36.8,30.00,WSW,253,0.0,5.0,45,0.00,,---,0.00,VWS V14.01,2013-07-09 08:51:00,
2013-07-09 02:52:00,58.0,36.8,29.99,WSW,253,4.0,4.0,45,0.00,,---,0.00,VWS V14.01,2013-07-09 08:52:00,
2013-07-09 02:53:00,58.0,36.8,29.99,WSW,253,4.0,4.0,45,0.00,,---,0.00,VWS V14.01,2013-07-09 08:53:00,
2013-07-09 02:54:00,58.1,36.9,30.00,WSW,253,2.0,5.0,45,0.00,,---,0.00,VWS V14.01,2013-07-09 08:54:00,
2013-07-09 02:55:00,58.2,37.0,30.00,WSW,253,0.0,2.0,45,0.00,,---,0.00,VWS V14.01,2013-07-09 08:55:00,
2013-07-09 02:56:00,58.3,37.1,29.99,WSW,253,0.0,0.0,45,0.00,,---,0.00,VWS V14.01,2013-07-09 08:56:00,
2013-07-09 02:57:00,58.4,37.2,29.99,WSW,253,5.0,5.0,45,0.00,,---,0.00,VWS V14.01,2013-07-09 08:57:00,
2013-07-09 02:58:00,58.4,37.2,29.99,WSW,253,5.0,5.0,45,0.00,,---,0.00,VWS V14.01,2013-07-09 08:58:00,
2013-07-09 02:59:00,58.5,36.7,29.99,WSW,253,2.0,5.0,44,0.00,,---,0.00,VWS V14.01,2013-07-09 08:59:00,
2013-07-09 03:00:00,58.5,36.7,29.99,WSW,253,2.0,5.0,44,0.00,,---,0.00,VWS V14.01,2013-07-09 09:00:00,
2013-07-09 03:01:00,58.6,36.8,29.99,WSW,253,5.0,6.0,44,0.00,,---,0.00,VWS V14.01,2013-07-09 09:01:00,
2013-07-09 03:02:00,58.6,36.8,29.99,SW,228,0.0,7.0,44,0.00,,---,0.00,VWS V14.01,2013-07-09 09:02:00,
2013-07-09 03:03:00,58.6,36.8,29.99,SW,228,0.0,7.0,44,0.00,,---,0.00,VWS V14.01,2013-07-09 09:03:00,
2013-07-09 03:04:00,58.8,37.0,29.99,SSW,197,2.0,7.0,44,0.00,,---,0.00,VWS V14.01,2013-07-09 09:04:00,
2013-07-09 03:05:00,58.9,37.0,29.99,SSW,198,1.0,6.0,44,0.00,,---,0.00,VWS V14.01,2013-07-09 09:05:00,
2013-07-09 03:06:00,58.9,37.0,29.99,SSW,198,4.0,5.0,44,0.00,,---,0.00,VWS V14.01,2013-07-09 09:06:00,
2013-07-09 03:07:00,58.9,36.5,29.99,SSW,198,3.0,4.0,43,0.00,,---,0.00,VWS V14.01,2013-07-09 09:07:00,
2013-07-09 03:08:00,58.9,36.5,29.99,SSW,198,3.0,4.0,43,0.00,,---,0.00,VWS V14.01,2013-07-09 09:08:00,
2013-07-09 03:09:00,59.0,36.6,29.99,SSW,198,4.0,5.0,43,0.00,,---,0.00,VWS V14.01,2013-07-09 09:09:00,
2013-07-09 03:10:00,59.1,36.7,29.99,SSW,198,4.0,5.0,43,0.00,,---,0.00,VWS V14.01,2013-07-09 09:10:00,
2013-07-09 03:11:00,59.1,36.7,29.99,West,264,6.0,7.0,43,0.00,,---,0.00,VWS V14.01,2013-07-09 09:11:00,
2013-07-09 03:12:00,59.1,36.7,29.99,WSW,258,1.0,6.0,43,0.00,,---,0.00,VWS V14.01,2013-07-09 09:12:00,
2013-07-09 03:13:00,59.1,36.7,29.99,WSW,258,1.0,6.0,43,0.00,,---,0.00,VWS V14.01,2013-07-09 09:13:00,
2013-07-09 03:14:00,59.1,36.7,29.99,WSW,258,0.0,2.0,43,0.00,,---,0.00,VWS V14.01,2013-07-09 09:14:00,
2013-07-09 03:15:00,59.1,36.7,29.99,WSW,258,0.0,4.0,43,0.00,,---,0.00,VWS V14.01,2013-07-09 09:15:00,
2013-07-09 03:16:00,59.1,36.7,29.99,WSW,258,0.0,0.0,43,0.00,,---,0.00,VWS V14.01,2013-07-09 09:16:00,
2013-07-09 03:17:00,59.0,36.6,29.99,WSW,258,0.0,0.0,43,0.00,,---,0.00,VWS V14.01,2013-07-09 09:17:00,
2013-07-09 03:18:00,59.0,36.6,29.99,WSW,258,0.0,0.0,43,0.00,,---,0.00,VWS V14.01,2013-07-09 09:18:00,
2013-07-09 03:19:00,59.0,36.6,30.00,WSW,258,6.0,6.0,43,0.00,,---,0.00,VWS V14.01,2013-07-09 09:19:00,
2013-07-09 03:20:00,59.0,36.6,30.00,WSW,258,4.0,6.0,43,0.00,,---,0.00,VWS V14.01,2013-07-09 09:20:00,
2013-07-09 03:21:00,59.0,37.1,29.99,WSW,258,6.0,7.0,44,0.00,,---,0.00,VWS V14.01,2013-07-09 09:21:00,
2013-07-09 03:22:00,59.0,36.6,30.00,WSW,258,3.0,6.0,43,0.00,,---,0.00,VWS V14.01,2013-07-09 09:22:00,
2013-07-09 03:23:00,59.0,36.6,30.00,WSW,258,3.0,6.0,43,0.00,,---,0.00,VWS V14.01,2013-07-09 09:23:00,
2013-07-09 03:24:00,59.1,36.7,30.00,WSW,258,5.0,7.0,43,0.00,,---,0.00,VWS V14.01,2013-07-09 09:24:00,
2013-07-09 03:25:00,59.1,36.7,30.00,WSW,258,6.0,7.0,43,0.00,,---,0.00,VWS V14.01,2013-07-09 09:25:00,
2013-07-09 03:26:00,59.2,36.7,30.00,WSW,258,6.0,6.0,43,0.00,,---,0.00,VWS V14.01,2013-07-09 09:26:00,
2013-07-09 03:27:00,59.2,36.7,30.00,WSW,258,5.0,6.0,43,0.00,,---,0.00,VWS V14.01,2013-07-09 09:27:00,
2013-07-09 03:28:00,59.2,36.7,30.00,WSW,258,5.0,6.0,43,0.00,,---,0.00,VWS V14.01,2013-07-09 09:28:00,
2013-07-09 03:29:00,59.2,36.7,30.00,WSW,258,7.0,7.0,43,0.00,,---,0.00,VWS V14.01,2013-07-09 09:29:00,
2013-07-09 03:30:00,59.3,36.8,30.00,WSW,258,4.0,7.0,43,0.00,,---,0.00,VWS V14.01,2013-07-09 09:30:00,
2013-07-09 03:31:00,59.3,36.8,29.99,WSW,258,6.0,6.0,43,0.00,,---,0.00,VWS V14.01,2013-07-09 09:31:00,
2013-07-09 03:32:00,59.3,36.8,30.00,WSW,258,6.0,6.0,43,0.00,,---,0.00,VWS V14.01,2013-07-09 09:32:00,
2013-07-09 03:33:00,59.3,36.8,30.00,WSW,258,6.0,6.0,43,0.00,,---,0.00,VWS V14.01,2013-07-09 09:33:00,
2013-07-09 03:34:00,59.3,36.2,30.00,WSW,258,1.0,4.0,42,0.00,,---,0.00,VWS V14.01,2013-07-09 09:34:00,
2013-07-09 03:35:00,59.3,36.2,30.00,WSW,258,2.0,2.0,42,0.00,,---,0.00,VWS V14.01,2013-07-09 09:35:00,
2013-07-09 03:36:00,59.3,36.8,30.00,WSW,258,0.0,3.0,43,0.00,,---,0.00,VWS V14.01,2013-07-09 09:36:00,
2013-07-09 03:37:00,59.3,37.4,30.00,WSW,258,1.0,2.0,44,0.00,,---,0.00,VWS V14.01,2013-07-09 09:37:00,
2013-07-09 03:38:00,59.3,37.4,30.00,WSW,258,1.0,2.0,44,0.00,,---,0.00,VWS V14.01,2013-07-09 09:38:00,
2013-07-09 03:39:00,59.1,36.7,30.00,WSW,258,0.0,2.0,43,0.00,,---,0.00,VWS V14.01,2013-07-09 09:39:00,
2013-07-09 03:40:00,59.1,36.7,30.00,WSW,258,4.0,4.0,43,0.00,,---,0.00,VWS V14.01,2013-07-09 09:40:00,
2013-07-09 03:41:00,59.0,37.1,30.00,WSW,258,5.0,6.0,44,0.00,,---,0.00,VWS V14.01,2013-07-09 09:41:00,
2013-07-09 03:42:00,59.0,36.6,30.00,WSW,258,4.0,7.0,43,0.00,,---,0.00,VWS V14.01,2013-07-09 09:42:00,
2013-07-09 03:43:00,59.0,36.6,30.00,WSW,258,4.0,7.0,43,0.00,,---,0.00,VWS V14.01,2013-07-09 09:43:00,
2013-07-09 03:44:00,58.9,36.5,30.00,WSW,258,6.0,7.0,43,0.00,,---,0.00,VWS V14.01,2013-07-09 09:44:00,
2013-07-09 03:45:00,58.9,36.5,30.00,WSW,258,4.0,6.0,43,0.00,,---,0.00,VWS V14.01,2013-07-09 09:45:00,
2013-07-09 03:46:00,58.9,36.5,30.00,WSW,258,2.0,5.0,43,0.00,,---,0.00,VWS V14.01,2013-07-09 09:46:00,
2013-07-09 03:47:00,58.9,37.0,30.00,WSW,258,1.0,2.0,44,0.00,,---,0.00,VWS V14.01,2013-07-09 09:47:00,
2013-07-09 03:48:00,58.9,37.0,30.00,WSW,258,1.0,2.0,44,0.00,,---,0.00,VWS V14.01,2013-07-09 09:48:00,
2013-07-09 03:49:00,58.8,36.4,30.00,WSW,258,1.0,4.0,43,0.00,,---,0.00,VWS V14.01,2013-07-09 09:49:00,
2013-07-09 03:50:00,58.8,36.4,30.00,WSW,258,2.0,2.0,43,0.00,,---,0.00,VWS V14.01,2013-07-09 09:50:00,
2013-07-09 03:51:00,58.7,36.9,30.00,WSW,258,4.0,5.0,44,0.00,,---,0.00,VWS V14.01,2013-07-09 09:51:00,
2013-07-09 03:52:00,58.7,36.9,30.00,WSW,258,2.0,4.0,44,0.00,,---,0.00,VWS V14.01,2013-07-09 09:52:00,
2013-07-09 03:53:00,58.7,36.9,30.00,WSW,258,2.0,4.0,44,0.00,,---,0.00,VWS V14.01,2013-07-09 09:53:00,
2013-07-09 03:54:00,58.6,36.8,30.00,WSW,258,1.0,1.0,44,0.00,,---,0.00,VWS V14.01,2013-07-09 09:54:00,
2013-07-09 03:55:00,58.6,36.8,30.00,WSW,258,0.0,1.0,44,0.00,,---,0.00,VWS V14.01,2013-07-09 09:55:00,
2013-07-09 03:56:00,58.6,36.8,30.00,WSW,258,0.0,1.0,44,0.00,,---,0.00,VWS V14.01,2013-07-09 09:56:00,
2013-07-09 03:57:00,58.6,36.8,30.00,WSW,258,0.0,1.0,44,0.00,,---,0.00,VWS V14.01,2013-07-09 09:57:00,
2013-07-09 03:58:00,58.6,36.8,30.00,WSW,258,0.0,1.0,44,0.00,,---,0.00,VWS V14.01,2013-07-09 09:58:00,
2013-07-09 03:59:00,58.5,36.7,30.00,WSW,258,0.0,1.0,44,0.00,,---,0.00,VWS V14.01,2013-07-09 09:59:00,
2013-07-09 04:00:00,58.4,36.6,30.00,WSW,258,1.0,3.0,44,0.00,,---,0.00,VWS V14.01,2013-07-09 10:00:00,
2013-07-09 04:01:00,58.4,36.6,30.00,WSW,258,1.0,1.0,44,0.00,,---,0.00,VWS V14.01,2013-07-09 10:01:00,
2013-07-09 04:02:00,58.4,36.6,30.00,WSW,258,2.0,2.0,44,0.00,,---,0.00,VWS V14.01,2013-07-09 10:02:00,
2013-07-09 04:03:00,58.4,36.6,30.00,WSW,258,2.0,2.0,44,0.00,,---,0.00,VWS V14.01,2013-07-09 10:03:00,
2013-07-09 04:04:00,58.3,36.5,30.00,WSW,258,3.0,4.0,44,0.00,,---,0.00,VWS V14.01,2013-07-09 10:04:00,
2013-07-09 04:05:00,58.3,36.5,30.00,WSW,258,4.0,5.0,44,0.00,,---,0.00,VWS V14.01,2013-07-09 10:05:00,
2013-07-09 04:06:00,58.3,36.5,30.00,WSW,258,5.0,5.0,44,0.00,,---,0.00,VWS V14.01,2013-07-09 10:06:00,
2013-07-09 04:07:00,58.3,36.5,30.00,WSW,258,4.0,5.0,44,0.00,,---,0.00,VWS V14.01,2013-07-09 10:07:00,
2013-07-09 04:08:00,58.3,36.5,30.00,WSW,258,4.0,5.0,44,0.00,,---,0.00,VWS V14.01,2013-07-09 10:08:00,
2013-07-09 04:09:00,58.3,36.5,30.00,WSW,258,2.0,4.0,44,0.00,,---,0.00,VWS V14.01,2013-07-09 10:09:00,
2013-07-09 04:10:00,58.2,36.4,30.00,WSW,258,2.0,4.0,44,0.00,,---,0.00,VWS V14.01,2013-07-09 10:10:00,
2013-07-09 04:11:00,58.2,36.4,30.00,WSW,258,0.0,2.0,44,0.00,,---,0.00,VWS V14.01,2013-07-09 10:11:00,
2013-07-09 04:12:00,58.1,36.3,30.00,WSW,258,1.0,2.0,44,0.00,,---,0.00,VWS V14.01,2013-07-09 10:12:00,
2013-07-09 04:13:00,58.1,36.3,30.00,WSW,258,1.0,2.0,44,0.00,,---,0.00,VWS V14.01,2013-07-09 10:13:00,
2013-07-09 04:14:00,58.1,36.3,30.00,WSW,258,0.0,1.0,44,0.00,,---,0.00,VWS V14.01,2013-07-09 10:14:00,
2013-07-09 04:15:00,58.1,36.3,30.00,WSW,258,0.0,2.0,44,0.00,,---,0.00,VWS V14.01,2013-07-09 10:15:00,
2013-07-09 04:16:00,58.1,36.3,30.00,WSW,258,0.0,0.0,44,0.00,,---,0.00,VWS V14.01,2013-07-09 10:16:00,
2013-07-09 04:17:00,58.1,36.3,30.00,WSW,258,0.0,0.0,44,0.00,,---,0.00,VWS V14.01,2013-07-09 10:17:00,
2013-07-09 04:18:00,58.1,36.3,30.00,WSW,258,0.0,0.0,44,0.00,,---,0.00,VWS V14.01,2013-07-09 10:18:00,
2013-07-09 04:19:00,58.1,36.3,30.00,WSW,258,1.0,3.0,44,0.00,,---,0.00,VWS V14.01,2013-07-09 10:19:00,
2013-07-09 04:20:00,58.1,36.3,30.00,WSW,258,1.0,3.0,44,0.00,,---,0.00,VWS V14.01,2013-07-09 10:20:00,
2013-07-09 04:21:00,58.1,36.3,30.00,WSW,258,0.0,1.0,44,0.00,,---,0.00,VWS V14.01,2013-07-09 10:21:00,
2013-07-09 04:22:00,58.2,36.4,30.00,WSW,258,1.0,4.0,44,0.00,,---,0.00,VWS V14.01,2013-07-09 10:22:00,
2013-07-09 04:23:00,58.2,36.4,30.00,WSW,258,1.0,4.0,44,0.00,,---,0.00,VWS V14.01,2013-07-09 10:23:00,
2013-07-09 04:24:00,58.2,36.4,30.00,WSW,258,2.0,4.0,44,0.00,,---,0.00,VWS V14.01,2013-07-09 10:24:00,
2013-07-09 04:25:00,58.2,36.4,30.00,WSW,258,1.0,2.0,44,0.00,,---,0.00,VWS V14.01,2013-07-09 10:25:00,
2013-07-09 04:26:00,58.3,36.5,30.00,WSW,258,0.0,4.0,44,0.00,,---,0.00,VWS V14.01,2013-07-09 10:26:00,
2013-07-09 04:27:00,58.3,36.5,30.00,WSW,258,2.0,2.0,44,0.00,,---,0.00,VWS V14.01,2013-07-09 10:27:00,
2013-07-09 04:28:00,58.3,36.5,30.00,WSW,258,2.0,2.0,44,0.00,,---,0.00,VWS V14.01,2013-07-09 10:28:00,
2013-07-09 04:29:00,58.4,36.6,30.00,WSW,258,0.0,0.0,44,0.00,,---,0.00,VWS V14.01,2013-07-09 10:29:00,
2013-07-09 04:30:00,58.4,36.6,30.00,WSW,258,0.0,0.0,44,0.00,,---,0.00,VWS V14.01,2013-07-09 10:30:00,
2013-07-09 04:31:00,58.4,36.6,30.00,WSW,258,0.0,0.0,44,0.00,,---,0.00,VWS V14.01,2013-07-09 10:31:00,
2013-07-09 04:32:00,58.4,36.6,30.00,WSW,258,1.0,1.0,44,0.00,,---,0.00,VWS V14.01,2013-07-09 10:32:00,
2013-07-09 04:33:00,58.4,36.6,30.00,WSW,258,1.0,1.0,44,0.00,,---,0.00,VWS V14.01,2013-07-09 10:33:00,
2013-07-09 04:34:00,58.3,36.5,30.00,WSW,258,0.0,0.0,44,0.00,,---,0.00,VWS V14.01,2013-07-09 10:34:00,
2013-07-09 04:35:00,58.3,36.5,30.00,WSW,258,0.0,0.0,44,0.00,,---,0.00,VWS V14.01,2013-07-09 10:35:00,
2013-07-09 04:36:00,58.2,36.4,30.00,WSW,258,1.0,4.0,44,0.00,,---,0.00,VWS V14.01,2013-07-09 10:36:00,
2013-07-09 04:37:00,58.1,36.3,30.00,WSW,258,0.0,1.0,44,0.00,,---,0.00,VWS V14.01,2013-07-09 10:37:00,
2013-07-09 04:38:00,58.1,36.3,30.00,WSW,258,0.0,1.0,44,0.00,,---,0.00,VWS V14.01,2013-07-09 10:38:00,
2013-07-09 04:39:00,58.0,36.8,30.00,WSW,258,0.0,1.0,45,0.00,,---,0.00,VWS V14.01,2013-07-09 10:39:00,
2013-07-09 04:40:00,57.9,36.1,30.00,WSW,258,0.0,1.0,44,0.00,,---,0.00,VWS V14.01,2013-07-09 10:40:00,
2013-07-09 04:41:00,57.9,36.7,30.00,WSW,258,0.0,1.0,45,0.00,,---,0.00,VWS V14.01,2013-07-09 10:41:00,
2013-07-09 04:42:00,57.8,36.6,30.00,WSW,258,0.0,2.0,45,0.00,,---,0.00,VWS V14.01,2013-07-09 10:42:00,
2013-07-09 04:43:00,57.8,36.6,30.00,WSW,258,0.0,2.0,45,0.00,,---,0.00,VWS V14.01,2013-07-09 10:43:00,
2013-07-09 04:44:00,57.7,36.5,30.00,SW,219,9.0,9.0,45,0.00,,---,0.00,VWS V14.01,2013-07-09 10:44:00,
2013-07-09 04:45:00,57.8,36.6,30.00,SSW,196,5.0,9.0,45,0.00,,---,0.00,VWS V14.01,2013-07-09 10:45:00,
2013-07-09 04:46:00,57.7,36.5,30.00,SW,219,4.0,7.0,45,0.00,,---,0.00,VWS V14.01,2013-07-09 10:46:00,
2013-07-09 04:47:00,57.8,36.6,30.00,SW,219,4.0,5.0,45,0.00,,---,0.00,VWS V14.01,2013-07-09 10:47:00,
2013-07-09 04:48:00,57.8,36.6,30.00,SW,219,4.0,5.0,45,0.00,,---,0.00,VWS V14.01,2013-07-09 10:48:00,
2013-07-09 04:49:00,57.8,36.6,30.00,SW,217,0.0,6.0,45,0.00,,---,0.00,VWS V14.01,2013-07-09 10:49:00,
2013-07-09 04:50:00,57.8,36.6,30.00,SW,217,4.0,5.0,45,0.00,,---,0.00,VWS V14.01,2013-07-09 10:50:00,
2013-07-09 04:51:00,57.8,36.6,30.00,SW,217,2.0,4.0,45,0.00,,---,0.00,VWS V14.01,2013-07-09 10:51:00,
2013-07-09 04:52:00,57.8,36.6,30.00,SW,218,1.0,6.0,45,0.00,,---,0.00,VWS V14.01,2013-07-09 10:52:00,
2013-07-09 04:53:00,57.8,36.6,30.00,SW,218,1.0,6.0,45,0.00,,---,0.00,VWS V14.01,2013-07-09 10:53:00,
2013-07-09 04:54:00,57.8,36.6,29.99,SW,218,4.0,6.0,45,0.00,,---,0.00,VWS V14.01,2013-07-09 10:54:00,
2013-07-09 04:55:00,57.8,36.6,30.00,SW,226,4.0,7.0,45,0.00,,---,0.00,VWS V14.01,2013-07-09 10:55:00,
2013-07-09 04:56:00,57.8,36.6,30.00,SW,226,1.0,4.0,45,0.00,,---,0.00,VWS V14.01,2013-07-09 10:56:00,
2013-07-09 04:57:00,57.9,36.7,29.99,SW,226,1.0,2.0,45,0.00,,---,0.00,VWS V14.01,2013-07-09 10:57:00,
2013-07-09 04:58:00,57.9,36.7,29.99,SW,226,1.0,2.0,45,0.00,,---,0.00,VWS V14.01,2013-07-09 10:58:00,
2013-07-09 04:59:00,57.9,36.7,30.00,SSE,153,6.0,8.0,45,0.00,,---,0.00,VWS V14.01,2013-07-09 10:59:00,
2013-07-09 05:00:00,58.0,36.8,29.99,SSW,203,8.0,9.0,45,0.00,,---,0.00,VWS V14.01,2013-07-09 11:00:00,
2013-07-09 05:01:00,58.0,36.8,29.99,SSW,207,1.0,8.0,45,0.00,,---,0.00,VWS V14.01,2013-07-09 11:01:00,
2013-07-09 05:02:00,58.0,36.8,29.99,SSW,208,3.0,6.0,45,0.00,,---,0.00,VWS V14.01,2013-07-09 11:02:00,
2013-07-09 05:03:00,58.0,36.8,29.99,SSW,208,3.0,6.0,45,0.00,,---,0.00,VWS V14.01,2013-07-09 11:03:00,
2013-07-09 05:04:00,58.1,36.9,29.99,South,180,1.0,6.0,45,0.00,,---,0.00,VWS V14.01,2013-07-09 11:04:00,
2013-07-09 05:05:00,58.1,36.9,29.99,SW,232,1.0,6.0,45,0.00,,---,0.00,VWS V14.01,2013-07-09 11:05:00,
2013-07-09 05:06:00,58.1,36.9,29.99,SSW,212,8.0,13.0,45,0.00,,---,0.00,VWS V14.01,2013-07-09 11:06:00,
2013-07-09 05:07:00,58.1,36.9,29.99,WSW,246,5.0,19.0,45,0.00,,---,0.00,VWS V14.01,2013-07-09 11:07:00,
2013-07-09 05:08:00,58.1,36.9,29.99,WSW,246,5.0,19.0,45,0.00,,---,0.00,VWS V14.01,2013-07-09 11:08:00,
2013-07-09 05:09:00,58.2,37.0,29.99,SW,236,1.0,5.0,45,0.00,,---,0.00,VWS V14.01,2013-07-09 11:09:00,
2013-07-09 05:10:00,58.3,37.1,29.99,NW,305,1.0,5.0,45,0.00,,---,0.00,VWS V14.01,2013-07-09 11:10:00,
2013-07-09 05:11:00,58.3,37.1,29.99,WSW,254,7.0,10.0,45,0.00,,---,0.00,VWS V14.01,2013-07-09 11:11:00,
2013-07-09 05:12:00,58.3,37.1,29.99,West,268,7.0,10.0,45,0.00,,---,0.00,VWS V14.01,2013-07-09 11:12:00,
2013-07-09 05:13:00,58.3,37.1,29.99,West,268,7.0,10.0,45,0.00,,---,0.00,VWS V14.01,2013-07-09 11:13:00,
2013-07-09 05:14:00,58.5,36.7,29.99,SW,234,9.0,12.0,44,0.00,,---,0.00,VWS V14.01,2013-07-09 11:14:00,
2013-07-09 05:15:00,58.5,36.7,29.99,WSW,250,5.0,11.0,44,0.00,,---,0.00,VWS V14.01,2013-07-09 11:15:00,
2013-07-09 05:16:00,58.6,36.8,29.99,SSW,192,5.0,8.0,44,0.00,,---,0.00,VWS V14.01,2013-07-09 11:16:00,
2013-07-09 05:17:00,58.6,36.8,29.99,SSW,195,0.0,5.0,44,0.00,,---,0.00,VWS V14.01,2013-07-09 11:17:00,
2013-07-09 05:18:00,58.6,36.8,29.99,SSW,195,0.0,5.0,44,0.00,,---,0.00,VWS V14.01,2013-07-09 11:18:00,
2013-07-09 05:19:00,58.7,36.9,29.99,SSW,194,1.0,3.0,44,0.00,,---,0.00,VWS V14.01,2013-07-09 11:19:00,
2013-07-09 05:20:00,58.7,36.9,29.99,ESE,117,0.0,2.0,44,0.00,,---,0.00,VWS V14.01,2013-07-09 11:20:00,
2013-07-09 05:21:00,58.7,36.3,29.99,ESE,117,0.0,0.0,43,0.00,,---,0.00,VWS V14.01,2013-07-09 11:21:00,
2013-07-09 05:22:00,58.7,36.9,29.99,ESE,117,0.0,1.0,44,0.00,,---,0.00,VWS V14.01,2013-07-09 11:22:00,
2013-07-09 05:23:00,58.7,36.9,29.99,ESE,117,0.0,1.0,44,0.00,,---,0.00,VWS V14.01,2013-07-09 11:23:00,
2013-07-09 05:24:00,58.7,36.9,29.99,ESE,117,0.0,3.0,44,0.00,,---,0.00,VWS V14.01,2013-07-09 11:24:00,
2013-07-09 05:25:00,58.7,36.9,29.99,ESE,117,0.0,1.0,44,0.00,,---,0.00,VWS V14.01,2013-07-09 11:25:00,
2013-07-09 05:26:00,58.7,36.9,29.99,ESE,117,0.0,1.0,44,0.00,,---,0.00,VWS V14.01,2013-07-09 11:26:00,
2013-07-09 05:27:00,58.6,36.8,29.99,ESE,117,0.0,0.0,44,0.00,,---,0.00,VWS V14.01,2013-07-09 11:27:00,
2013-07-09 05:28:00,58.6,36.8,29.99,ESE,117,0.0,0.0,44,0.00,,---,0.00,VWS V14.01,2013-07-09 11:28:00,
2013-07-09 05:29:00,58.6,36.8,29.99,ESE,117,0.0,1.0,44,0.00,,---,0.00,VWS V14.01,2013-07-09 11:29:00,
2013-07-09 05:30:00,58.6,36.8,29.99,SE,124,4.0,5.0,44,0.00,,---,0.00,VWS V14.01,2013-07-09 11:30:00,
2013-07-09 05:31:00,58.6,36.8,29.99,ESE,123,1.0,5.0,44,0.00,,---,0.00,VWS V14.01,2013-07-09 11:31:00,
2013-07-09 05:32:00,58.5,36.7,29.99,SE,126,3.0,4.0,44,0.00,,---,0.00,VWS V14.01,2013-07-09 11:32:00,
2013-07-09 05:33:00,58.5,36.7,29.99,SE,126,3.0,4.0,44,0.00,,---,0.00,VWS V14.01,2013-07-09 11:33:00,
2013-07-09 05:34:00,58.4,36.6,29.99,SE,131,3.0,7.0,44,0.00,,---,0.00,VWS V14.01,2013-07-09 11:34:00,
2013-07-09 05:35:00,58.4,36.6,29.99,SE,131,0.0,4.0,44,0.00,,---,0.00,VWS V14.01,2013-07-09 11:35:00,
2013-07-09 05:36:00,58.3,36.5,29.99,SE,131,3.0,3.0,44,0.00,,---,0.00,VWS V14.01,2013-07-09 11:36:00,
2013-07-09 05:37:00,58.2,37.0,29.99,SE,131,3.0,7.0,45,0.00,,---,0.00,VWS V14.01,2013-07-09 11:37:00,
2013-07-09 05:38:00,58.2,37.0,29.99,SE,131,3.0,7.0,45,0.00,,---,0.00,VWS V14.01,2013-07-09 11:38:00,
2013-07-09 05:39:00,58.0,36.8,29.99,SE,132,0.0,7.0,45,0.00,,---,0.00,VWS V14.01,2013-07-09 11:39:00,
2013-07-09 05:40:00,57.9,36.7,29.99,SE,132,5.0,5.0,45,0.00,,---,0.00,VWS V14.01,2013-07-09 11:40:00,
2013-07-09 05:41:00,57.8,36.6,30.00,SE,140,5.0,7.0,45,0.00,,---,0.00,VWS V14.01,2013-07-09 11:41:00,
2013-07-09 05:42:00,57.8,36.6,29.99,SE,145,2.0,8.0,45,0.00,,---,0.00,VWS V14.01,2013-07-09 11:42:00,
2013-07-09 05:43:00,57.8,36.6,29.99,SE,145,2.0,8.0,45,0.00,,---,0.00,VWS V14.01,2013-07-09 11:43:00,
2013-07-09 05:44:00,57.7,36.5,30.00,SE,142,2.0,7.0,45,0.00,,---,0.00,VWS V14.01,2013-07-09 11:44:00,
2013-07-09 05:45:00,57.7,36.5,30.00,SE,142,1.0,2.0,45,0.00,,---,0.00,VWS V14.01,2013-07-09 11:45:00,
2013-07-09 05:46:00,57.6,36.4,30.00,SE,142,3.0,5.0,45,0.00,,---,0.00,VWS V14.01,2013-07-09 11:46:00,
2013-07-09 05:47:00,57.6,36.4,29.99,SE,142,1.0,4.0,45,0.00,,---,0.00,VWS V14.01,2013-07-09 11:47:00,
2013-07-09 05:48:00,57.6,36.4,29.99,SE,142,1.0,4.0,45,0.00,,---,0.00,VWS V14.01,2013-07-09 11:48:00,
2013-07-09 05:49:00,57.6,36.4,30.00,SE,142,0.0,0.0,45,0.00,,---,0.00,VWS V14.01,2013-07-09 11:49:00,
2013-07-09 05:50:00,57.6,36.4,30.00,SSW,198,1.0,6.0,45,0.00,,---,0.00,VWS V14.01,2013-07-09 11:50:00,
2013-07-09 05:51:00,57.6,36.4,30.00,SW,227,2.0,7.0,45,0.00,,---,0.00,VWS V14.01,2013-07-09 11:51:00,
2013-07-09 05:52:00,57.7,36.5,30.00,South,178,6.0,6.0,45,0.00,,---,0.00,VWS V14.01,2013-07-09 11:52:00,
2013-07-09 05:53:00,57.7,36.5,30.00,South,178,6.0,6.0,45,0.00,,---,0.00,VWS V14.01,2013-07-09 11:53:00,
2013-07-09 05:54:00,57.7,36.5,30.00,South,178,0.0,3.0,45,0.00,,---,0.00,VWS V14.01,2013-07-09 11:54:00,
2013-07-09 05:55:00,57.7,36.5,30.00,South,178,1.0,1.0,45,0.00,,---,0.00,VWS V14.01,2013-07-09 11:55:00,
2013-07-09 05:56:00,57.8,36.6,30.00,South,178,0.0,1.0,45,0.00,,---,0.00,VWS V14.01,2013-07-09 11:56:00,
2013-07-09 05:57:00,57.7,36.5,30.00,South,178,0.0,1.0,45,0.00,,---,0.00,VWS V14.01,2013-07-09 11:57:00,
2013-07-09 05:58:00,57.7,36.5,30.00,South,178,0.0,1.0,45,0.00,,---,0.00,VWS V14.01,2013-07-09 11:58:00,
2013-07-09 05:59:00,57.8,36.6,30.00,South,178,4.0,4.0,45,0.00,,---,0.00,VWS V14.01,2013-07-09 11:59:00,
2013-07-09 06:00:00,57.8,36.6,30.00,South,178,4.0,5.0,45,0.00,,---,0.00,VWS V14.01,2013-07-09 12:00:00,
2013-07-09 06:01:00,57.8,36.6,30.00,South,178,2.0,4.0,45,0.00,,---,0.00,VWS V14.01,2013-07-09 12:01:00,
2013-07-09 06:02:00,57.8,36.6,30.00,South,178,5.0,6.0,45,0.00,,---,0.00,VWS V14.01,2013-07-09 12:02:00,
2013-07-09 06:03:00,57.8,36.6,30.00,South,178,2.0,7.0,45,0.00,,---,0.00,VWS V14.01,2013-07-09 12:03:00,
2013-07-09 06:04:00,57.8,36.6,30.00,South,178,5.0,5.0,45,0.00,,---,0.00,VWS V14.01,2013-07-09 12:04:00,
2013-07-09 06:05:00,57.8,36.6,30.00,South,178,2.0,2.0,45,0.00,,---,0.00,VWS V14.01,2013-07-09 12:05:00,
2013-07-09 06:06:00,57.9,36.7,30.00,South,178,1.0,4.0,45,0.00,,---,0.00,VWS V14.01,2013-07-09 12:06:00,
2013-07-09 06:07:00,57.8,37.2,30.00,South,178,0.0,4.0,46,0.00,,---,0.00,VWS V14.01,2013-07-09 12:07:00,
2013-07-09 06:08:00,57.8,36.6,30.00,South,178,4.0,5.0,45,0.00,,---,0.00,VWS V14.01,2013-07-09 12:08:00,
2013-07-09 06:09:00,57.8,36.6,30.00,South,178,2.0,2.0,45,0.00,,---,0.00,VWS V14.01,2013-07-09 12:09:00,
2013-07-09 06:10:00,57.8,36.6,30.00,West,280,8.0,9.0,45,0.00,,---,0.00,VWS V14.01,2013-07-09 12:10:00,
2013-07-09 06:11:00,57.8,36.6,30.00,WNW,283,7.0,9.0,45,0.00,,---,0.00,VWS V14.01,2013-07-09 12:11:00,
2013-07-09 06:12:00,57.9,36.7,30.00,West,275,3.0,7.0,45,0.00,,---,0.00,VWS V14.01,2013-07-09 12:12:00,
2013-07-09 06:13:00,58.0,36.8,30.00,West,275,0.0,5.0,45,0.00,,---,0.00,VWS V14.01,2013-07-09 12:13:00,
2013-07-09 06:14:00,58.0,36.8,30.00,West,275,4.0,5.0,45,0.00,,---,0.00,VWS V14.01,2013-07-09 12:14:00,
2013-07-09 06:15:00,58.1,36.9,30.00,West,275,1.0,3.0,45,0.00,,---,0.00,VWS V14.01,2013-07-09 12:15:00,
2013-07-09 06:16:00,58.1,36.9,30.00,West,275,4.0,5.0,45,0.00,,---,0.00,VWS V14.01,2013-07-09 12:16:00,
2013-07-09 06:17:00,58.1,36.9,30.00,West,275,4.0,5.0,45,0.00,,---,0.00,VWS V14.01,2013-07-09 12:17:00,
2013-07-09 06:18:00,58.1,36.9,30.00,West,275,3.0,6.0,45,0.00,,---,0.00,VWS V14.01,2013-07-09 12:18:00,
2013-07-09 06:19:00,58.1,36.9,30.00,West,275,5.0,5.0,45,0.00,,---,0.00,VWS V14.01,2013-07-09 12:19:00,
2013-07-09 06:20:00,58.1,36.9,30.00,West,275,4.0,5.0,45,0.00,,---,0.00,VWS V14.01,2013-07-09 12:20:00,
2013-07-09 06:21:00,58.1,36.9,30.00,West,275,4.0,5.0,45,0.00,,---,0.00,VWS V14.01,2013-07-09 12:21:00,
2013-07-09 06:22:00,58.0,36.8,30.00,West,275,5.0,5.0,45,0.00,,---,0.00,VWS V14.01,2013-07-09 12:22:00,
2013-07-09 06:23:00,58.0,36.8,30.00,West,275,2.0,5.0,45,0.00,,---,0.00,VWS V14.01,2013-07-09 12:23:00,
2013-07-09 06:24:00,58.0,36.8,30.00,West,275,5.0,5.0,45,0.00,,---,0.00,VWS V14.01,2013-07-09 12:24:00,
2013-07-09 06:25:00,57.8,37.2,30.00,West,275,5.0,5.0,46,0.00,,---,0.00,VWS V14.01,2013-07-09 12:25:00,
2013-07-09 06:26:00,57.7,37.1,30.00,West,275,5.0,6.0,46,0.00,,---,0.00,VWS V14.01,2013-07-09 12:26:00,
2013-07-09 06:27:00,57.6,37.0,30.00,West,275,2.0,5.0,46,0.00,,---,0.00,VWS V14.01,2013-07-09 12:27:00,
2013-07-09 06:28:00,57.6,37.0,30.00,West,275,0.0,4.0,46,0.00,,---,0.00,VWS V14.01,2013-07-09 12:28:00,
2013-07-09 06:29:00,57.6,37.0,30.00,West,275,0.0,4.0,46,0.00,,---,0.00,VWS V14.01,2013-07-09 12:29:00,
2013-07-09 06:30:00,57.5,36.9,30.00,West,275,1.0,4.0,46,0.00,,---,0.00,VWS V14.01,2013-07-09 12:30:00,
2013-07-09 06:31:00,57.3,36.7,30.00,West,275,0.0,4.0,46,0.00,,---,0.00,VWS V14.01,2013-07-09 12:31:00,
2013-07-09 06:32:00,57.3,36.7,30.00,West,275,0.0,1.0,46,0.00,,---,0.00,VWS V14.01,2013-07-09 12:32:00,
2013-07-09 06:33:00,57.2,36.6,30.00,West,275,0.0,2.0,46,0.00,,---,0.00,VWS V14.01,2013-07-09 12:33:00,
2013-07-09 06:34:00,57.3,36.7,30.00,West,275,0.0,2.0,46,0.00,,---,0.00,VWS V14.01,2013-07-09 12:34:00,
2013-07-09 06:35:00,57.1,37.1,30.00,West,275,4.0,4.0,47,0.00,,---,0.00,VWS V14.01,2013-07-09 12:35:00,
2013-07-09 06:36:00,57.1,37.1,30.00,West,275,0.0,4.0,47,0.00,,---,0.00,VWS V14.01,2013-07-09 12:36:00,
2013-07-09 06:37:00,57.1,37.1,30.00,West,275,2.0,3.0,47,0.00,,---,0.00,VWS V14.01,2013-07-09 12:37:00,
2013-07-09 06:38:00,57.1,37.1,30.00,West,275,4.0,6.0,47,0.00,,---,0.00,VWS V14.01,2013-07-09 12:38:00,
2013-07-09 06:39:00,57.1,37.1,30.00,West,275,6.0,6.0,47,0.00,,---,0.00,VWS V14.01,2013-07-09 12:39:00,
2013-07-09 06:40:00,57.1,37.1,30.00,West,275,5.0,5.0,47,0.00,,---,0.00,VWS V14.01,2013-07-09 12:40:00,
2013-07-09 06:41:00,57.1,37.1,30.00,West,275,6.0,6.0,47,0.00,,---,0.00,VWS V14.01,2013-07-09 12:41:00,
2013-07-09 06:42:00,57.1,37.1,30.00,West,275,5.0,6.0,47,0.00,,---,0.00,VWS V14.01,2013-07-09 12:42:00,
2013-07-09 06:43:00,57.1,37.1,30.00,West,275,7.0,7.0,47,0.00,,---,0.00,VWS V14.01,2013-07-09 12:43:00,
2013-07-09 06:44:00,57.1,37.1,30.00,West,275,5.0,6.0,47,0.00,,---,0.00,VWS V14.01,2013-07-09 12:44:00,
2013-07-09 06:45:00,57.1,37.1,30.00,West,275,4.0,6.0,47,0.00,,---,0.00,VWS V14.01,2013-07-09 12:45:00,
2013-07-09 06:46:00,57.2,37.2,30.00,West,275,6.0,6.0,47,0.00,,---,0.00,VWS V14.01,2013-07-09 12:46:00,
2013-07-09 06:47:00,57.2,37.2,30.00,West,275,3.0,6.0,47,0.00,,---,0.00,VWS V14.01,2013-07-09 12:47:00,
2013-07-09 06:48:00,57.2,37.2,30.00,West,275,6.0,6.0,47,0.00,,---,0.00,VWS V14.01,2013-07-09 12:48:00,
2013-07-09 06:49:00,57.2,37.2,30.00,West,275,5.0,6.0,47,0.00,,---,0.00,VWS V14.01,2013-07-09 12:49:00,
2013-07-09 06:50:00,57.3,36.7,30.00,WNW,282,6.0,8.0,46,0.00,,---,0.00,VWS V14.01,2013-07-09 12:50:00,
2013-07-09 06:51:00,57.3,36.7,30.01,WNW,282,4.0,6.0,46,0.00,,---,0.00,VWS V14.01,2013-07-09 12:51:00,
2013-07-09 06:52:00,57.3,36.7,30.00,WNW,282,6.0,6.0,46,0.00,,---,0.00,VWS V14.01,2013-07-09 12:52:00,
2013-07-09 06:53:00,57.4,36.8,30.01,WNW,282,6.0,7.0,46,0.00,,---,0.00,VWS V14.01,2013-07-09 12:53:00,
2013-07-09 06:54:00,57.4,36.8,30.01,WNW,282,6.0,7.0,46,0.00,,---,0.00,VWS V14.01,2013-07-09 12:54:00,
2013-07-09 06:55:00,57.4,36.8,30.01,WNW,282,4.0,7.0,46,0.00,,---,0.00,VWS V14.01,2013-07-09 12:55:00,
2013-07-09 06:56:00,57.4,37.3,30.01,WNW,282,6.0,7.0,47,0.00,,---,0.00,VWS V14.01,2013-07-09 12:56:00,
2013-07-09 06:57:00,57.4,36.8,30.01,WNW,284,5.0,7.0,46,0.00,,---,0.00,VWS V14.01,2013-07-09 12:57:00,
2013-07-09 06:58:00,57.4,36.8,30.01,WNW,296,5.0,7.0,46,0.00,,---,0.00,VWS V14.01,2013-07-09 12:58:00,
2013-07-09 06:59:00,57.4,36.8,30.01,WNW,296,5.0,7.0,46,0.00,,---,0.00,VWS V14.01,2013-07-09 12:59:00,
2013-07-09 07:00:00,57.4,37.3,30.01,WNW,301,4.0,4.0,47,0.00,,---,0.00,VWS V14.01,2013-07-09 13:00:00,
2013-07-09 07:01:00,57.4,37.3,30.01,WNW,301,5.0,6.0,47,0.00,,---,0.00,VWS V14.01,2013-07-09 13:01:00,
2013-07-09 07:02:00,57.4,37.9,30.01,WNW,283,7.0,8.0,48,0.00,,---,0.00,VWS V14.01,2013-07-09 13:02:00,
2013-07-09 07:03:00,57.3,37.3,30.01,WNW,291,6.0,7.0,47,0.00,,---,0.00,VWS V14.01,2013-07-09 13:03:00,
2013-07-09 07:04:00,57.3,37.3,30.01,WNW,291,6.0,7.0,47,0.00,,---,0.00,VWS V14.01,2013-07-09 13:04:00,
2013-07-09 07:05:00,57.3,37.3,30.01,WNW,292,7.0,7.0,47,0.00,,---,0.00,VWS V14.01,2013-07-09 13:05:00,
2013-07-09 07:06:00,57.5,38.0,30.01,WNW,296,5.0,5.0,48,0.00,,---,0.00,VWS V14.01,2013-07-09 13:06:00,
2013-07-09 07:07:00,57.5,38.0,30.01,WNW,296,3.0,5.0,48,0.00,,---,0.00,VWS V14.01,2013-07-09 13:07:00,
2013-07-09 07:08:00,57.5,37.5,30.01,WNW,295,4.0,5.0,47,0.00,,---,0.00,VWS V14.01,2013-07-09 13:08:00,
2013-07-09 07:09:00,57.6,37.5,30.01,WNW,294,1.0,5.0,47,0.00,,---,0.00,VWS V14.01,2013-07-09 13:09:00,
2013-07-09 07:10:00,57.6,37.5,30.01,WNW,294,2.0,5.0,47,0.00,,---,0.00,VWS V14.01,2013-07-09 13:10:00,
2013-07-09 07:11:00,57.7,38.2,30.01,WNW,294,1.0,4.0,48,0.00,,---,0.00,VWS V14.01,2013-07-09 13:11:00,
2013-07-09 07:12:00,57.7,38.2,30.01,WNW,295,1.0,5.0,48,0.00,,---,0.00,VWS V14.01,2013-07-09 13:12:00,
2013-07-09 07:13:00,57.8,38.3,30.01,WNW,296,1.0,1.0,48,0.00,,---,0.00,VWS V14.01,2013-07-09 13:13:00,
2013-07-09 07:14:00,57.8,38.3,30.01,WNW,296,0.0,3.0,48,0.00,,---,0.00,VWS V14.01,2013-07-09 13:14:00,
2013-07-09 07:15:00,57.8,38.3,30.01,WNW,296,3.0,3.0,48,0.00,,---,0.00,VWS V14.01,2013-07-09 13:15:00,
2013-07-09 07:16:00,57.8,38.3,30.01,WNW,296,3.0,4.0,48,0.00,,---,0.00,VWS V14.01,2013-07-09 13:16:00,
2013-07-09 07:17:00,57.8,38.3,30.01,WNW,296,0.0,3.0,48,0.00,,---,0.00,VWS V14.01,2013-07-09 13:17:00,
2013-07-09 07:18:00,57.8,37.7,30.01,WNW,296,0.0,0.0,47,0.00,,---,0.00,VWS V14.01,2013-07-09 13:18:00,
2013-07-09 07:19:00,57.8,38.8,30.01,WNW,296,0.0,0.0,49,0.00,,---,0.00,VWS V14.01,2013-07-09 13:19:00,
2013-07-09 07:20:00,57.8,37.7,30.01,WNW,296,0.0,0.0,47,0.00,,---,0.00,VWS V14.01,2013-07-09 13:20:00,
2013-07-09 07:21:00,57.9,38.3,30.01,WNW,296,1.0,1.0,48,0.00,,---,0.00,VWS V14.01,2013-07-09 13:21:00,
2013-07-09 07:22:00,57.9,38.3,30.01,WNW,297,0.0,1.0,48,0.00,,---,0.00,VWS V14.01,2013-07-09 13:22:00,
2013-07-09 07:23:00,57.9,38.3,30.01,WNW,297,1.0,1.0,48,0.00,,---,0.00,VWS V14.01,2013-07-09 13:23:00,
2013-07-09 07:24:00,58.0,37.9,30.01,WNW,297,0.0,1.0,47,0.00,,---,0.00,VWS V14.01,2013-07-09 13:24:00,
2013-07-09 07:25:00,58.0,38.4,30.01,WNW,297,0.0,1.0,48,0.00,,---,0.00,VWS V14.01,2013-07-09 13:25:00,
2013-07-09 07:26:00,58.1,38.0,30.01,WNW,298,0.0,1.0,47,0.00,,---,0.00,VWS V14.01,2013-07-09 13:26:00,
2013-07-09 07:27:00,58.2,38.6,30.01,WNW,298,3.0,3.0,48,0.00,,---,0.00,VWS V14.01,2013-07-09 13:27:00,
2013-07-09 07:28:00,58.3,38.2,30.01,WNW,298,1.0,5.0,47,0.00,,---,0.00,VWS V14.01,2013-07-09 13:28:00,
2013-07-09 07:29:00,58.4,38.3,30.01,WNW,298,3.0,5.0,47,0.00,,---,0.00,VWS V14.01,2013-07-09 13:29:00,
2013-07-09 07:30:00,58.3,38.2,30.01,WNW,298,4.0,4.0,47,0.00,,---,0.00,VWS V14.01,2013-07-09 13:30:00,
2013-07-09 07:31:00,58.6,37.9,30.01,WNW,298,0.0,1.0,46,0.00,,---,0.00,VWS V14.01,2013-07-09 13:31:00,
2013-07-09 07:32:00,58.7,38.5,30.01,WNW,298,0.0,1.0,47,0.00,,---,0.00,VWS V14.01,2013-07-09 13:32:00,
2013-07-09 07:33:00,58.8,38.1,30.01,WNW,298,0.0,2.0,46,0.00,,---,0.00,VWS V14.01,2013-07-09 13:33:00,
2013-07-09 07:34:00,58.9,37.6,30.01,WNW,298,0.0,1.0,45,0.00,,---,0.00,VWS V14.01,2013-07-09 13:34:00,
2013-07-09 07:35:00,58.9,37.6,30.01,WNW,298,0.0,1.0,45,0.00,,---,0.00,VWS V14.01,2013-07-09 13:35:00,
2013-07-09 07:36:00,59.2,37.9,30.01,WNW,298,0.0,2.0,45,0.00,,---,0.00,VWS V14.01,2013-07-09 13:36:00,
2013-07-09 07:37:00,59.3,39.1,30.01,WNW,298,0.0,0.0,47,0.00,,---,0.00,VWS V14.01,2013-07-09 13:37:00,
2013-07-09 07:38:00,59.4,39.2,30.01,WNW,298,0.0,1.0,47,0.00,,---,0.00,VWS V14.01,2013-07-09 13:38:00,
2013-07-09 07:39:00,59.5,38.7,30.01,WNW,290,6.0,6.0,46,0.00,,---,0.00,VWS V14.01,2013-07-09 13:39:00,
2013-07-09 07:40:00,59.5,38.7,30.01,WNW,290,5.0,5.0,46,0.00,,---,0.00,VWS V14.01,2013-07-09 13:40:00,
2013-07-09 07:41:00,59.7,39.5,30.01,WNW,290,4.0,5.0,47,0.00,,---,0.00,VWS V14.01,2013-07-09 13:41:00,
2013-07-09 07:42:00,59.8,38.4,30.01,WNW,290,0.0,4.0,45,0.00,,---,0.00,VWS V14.01,2013-07-09 13:42:00,
2013-07-09 07:43:00,59.9,38.0,30.01,WNW,290,0.0,1.0,44,0.00,,---,0.00,VWS V14.01,2013-07-09 13:43:00,
2013-07-09 07:44:00,60.0,38.0,30.01,WNW,290,2.0,2.0,44,0.00,,---,0.00,VWS V14.01,2013-07-09 13:44:00,
2013-07-09 07:45:00,60.0,38.0,30.01,WNW,290,0.0,0.0,44,0.00,,---,0.00,VWS V14.01,2013-07-09 13:45:00,
2013-07-09 07:46:00,60.2,38.2,30.01,WNW,290,0.0,1.0,44,0.00,,---,0.00,VWS V14.01,2013-07-09 13:46:00,
2013-07-09 07:47:00,60.3,38.3,30.01,WNW,290,2.0,4.0,44,0.00,,---,0.00,VWS V14.01,2013-07-09 13:47:00,
2013-07-09 07:48:00,60.4,39.0,30.01,WNW,290,0.0,2.0,45,0.00,,---,0.00,VWS V14.01,2013-07-09 13:48:00,
2013-07-09 07:49:00,60.6,38.6,30.01,WNW,290,1.0,3.0,44,0.00,,---,0.00,VWS V14.01,2013-07-09 13:49:00,
2013-07-09 07:50:00,60.6,38.6,30.01,WNW,290,2.0,3.0,44,0.00,,---,0.00,VWS V14.01,2013-07-09 13:50:00,
2013-07-09 07:51:00,60.9,38.9,30.01,WNW,290,0.0,2.0,44,0.00,,---,0.00,VWS V14.01,2013-07-09 13:51:00,
2013-07-09 07:52:00,61.0,39.0,30.01,WNW,289,0.0,1.0,44,0.00,,---,0.00,VWS V14.01,2013-07-09 13:52:00,
2013-07-09 07:53:00,61.1,39.6,30.01,WNW,289,4.0,6.0,45,0.00,,---,0.00,VWS V14.01,2013-07-09 13:53:00,
2013-07-09 07:54:00,61.3,38.6,30.01,WNW,289,2.0,4.0,43,0.00,,---,0.00,VWS V14.01,2013-07-09 13:54:00,
2013-07-09 07:55:00,61.3,38.6,30.01,WNW,289,2.0,4.0,43,0.00,,---,0.00,VWS V14.01,2013-07-09 13:55:00,
2013-07-09 07:56:00,61.6,38.3,30.01,WNW,289,2.0,3.0,42,0.00,,---,0.00,VWS V14.01,2013-07-09 13:56:00,
2013-07-09 07:57:00,61.7,39.0,30.01,WNW,289,2.0,4.0,43,0.00,,---,0.00,VWS V14.01,2013-07-09 13:57:00,
2013-07-09 07:58:00,61.9,39.2,30.01,WNW,289,4.0,7.0,43,0.00,,---,0.00,VWS V14.01,2013-07-09 13:58:00,
2013-07-09 07:59:00,62.0,39.3,30.01,WNW,289,2.0,4.0,43,0.00,,---,0.00,VWS V14.01,2013-07-09 13:59:00,
2013-07-09 08:00:00,62.0,39.3,30.01,WNW,289,2.0,4.0,43,0.00,,---,0.00,VWS V14.01,2013-07-09 14:00:00,
2013-07-09 08:01:00,62.2,38.8,30.01,WNW,290,2.0,4.0,42,0.00,,---,0.00,VWS V14.01,2013-07-09 14:01:00,
2013-07-09 08:02:00,62.3,38.9,30.01,WNW,289,0.0,3.0,42,0.00,,---,0.00,VWS V14.01,2013-07-09 14:02:00,
2013-07-09 08:03:00,62.4,40.2,30.01,WNW,289,0.0,1.0,44,0.00,,---,0.00,VWS V14.01,2013-07-09 14:03:00,
2013-07-09 08:04:00,62.5,39.1,30.01,WNW,289,0.0,1.0,42,0.00,,---,0.00,VWS V14.01,2013-07-09 14:04:00,
2013-07-09 08:05:00,62.5,39.1,30.01,WNW,289,0.0,1.0,42,0.00,,---,0.00,VWS V14.01,2013-07-09 14:05:00,
2013-07-09 08:06:00,62.7,39.3,30.01,WNW,289,0.0,0.0,42,0.00,,---,0.00,VWS V14.01,2013-07-09 14:06:00,
2013-07-09 08:07:00,62.9,39.5,30.01,WNW,289,0.0,0.0,42,0.00,,---,0.00,VWS V14.01,2013-07-09 14:07:00,
2013-07-09 08:08:00,63.0,39.6,30.01,WNW,289,1.0,1.0,42,0.00,,---,0.00,VWS V14.01,2013-07-09 14:08:00,
2013-07-09 08:09:00,63.1,40.3,30.01,WNW,289,2.0,2.0,43,0.00,,---,0.00,VWS V14.01,2013-07-09 14:09:00,
2013-07-09 08:10:00,63.1,40.3,30.01,WNW,289,2.0,2.0,43,0.00,,---,0.00,VWS V14.01,2013-07-09 14:10:00,
2013-07-09 08:11:00,63.4,39.3,30.01,WNW,289,0.0,1.0,41,0.00,,---,0.00,VWS V14.01,2013-07-09 14:11:00,
2013-07-09 08:12:00,63.6,40.1,30.01,WNW,289,0.0,2.0,42,0.00,,---,0.00,VWS V14.01,2013-07-09 14:12:00,
2013-07-09 08:13:00,63.7,39.6,30.01,WNW,289,0.0,1.0,41,0.00,,---,0.00,VWS V14.01,2013-07-09 14:13:00,
2013-07-09 08:14:00,63.9,39.8,30.01,WNW,289,0.0,1.0,41,0.00,,---,0.00,VWS V14.01,2013-07-09 14:14:00,
2013-07-09 08:15:00,63.9,39.8,30.01,WNW,289,0.0,1.0,41,0.00,,---,0.00,VWS V14.01,2013-07-09 14:15:00,
2013-07-09 08:16:00,64.2,40.0,30.01,WNW,289,1.0,2.0,41,0.00,,---,0.00,VWS V14.01,2013-07-09 14:16:00,
2013-07-09 08:17:00,64.4,38.9,30.01,WNW,288,0.0,2.0,39,0.00,,---,0.00,VWS V14.01,2013-07-09 14:17:00,
2013-07-09 08:18:00,64.6,39.1,30.01,WNW,288,1.0,1.0,39,0.00,,---,0.00,VWS V14.01,2013-07-09 14:18:00,
2013-07-09 08:19:00,64.8,39.3,30.01,WNW,288,2.0,3.0,39,0.00,,---,0.00,VWS V14.01,2013-07-09 14:19:00,
2013-07-09 08:20:00,64.8,39.3,30.01,WNW,288,2.0,3.0,39,0.00,,---,0.00,VWS V14.01,2013-07-09 14:20:00,
2013-07-09 08:21:00,65.2,38.3,30.01,WNW,288,1.0,5.0,37,0.00,,---,0.00,VWS V14.01,2013-07-09 14:21:00,
2013-07-09 08:22:00,65.4,38.5,30.01,WNW,288,0.0,4.0,37,0.00,,---,0.00,VWS V14.01,2013-07-09 14:22:00,
2013-07-09 08:23:00,65.6,39.3,30.01,WNW,288,1.0,4.0,38,0.00,,---,0.00,VWS V14.01,2013-07-09 14:23:00,
2013-07-09 08:24:00,65.8,38.8,30.01,WNW,288,0.0,5.0,37,0.00,,---,0.00,VWS V14.01,2013-07-09 14:24:00,
2013-07-09 08:25:00,65.9,39.6,30.01,WNW,287,5.0,6.0,38,0.00,,---,0.00,VWS V14.01,2013-07-09 14:25:00,
2013-07-09 08:26:00,65.8,38.8,30.01,WNW,288,0.0,0.0,37,0.00,,---,0.00,VWS V14.01,2013-07-09 14:26:00,
2013-07-09 08:27:00,66.2,38.5,30.01,WSW,253,7.0,8.0,36,0.00,,---,0.00,VWS V14.01,2013-07-09 14:27:00,
2013-07-09 08:28:00,66.4,38.7,30.01,WSW,238,5.0,8.0,36,0.00,,---,0.00,VWS V14.01,2013-07-09 14:28:00,
2013-07-09 08:29:00,66.6,38.1,30.01,WSW,238,4.0,5.0,35,0.00,,---,0.00,VWS V14.01,2013-07-09 14:29:00,
2013-07-09 08:30:00,66.7,38.2,30.01,WSW,238,4.0,6.0,35,0.00,,---,0.00,VWS V14.01,2013-07-09 14:30:00,
2013-07-09 08:31:00,66.7,38.2,30.01,WSW,238,1.0,5.0,35,0.00,,---,0.00,VWS V14.01,2013-07-09 14:31:00,
2013-07-09 08:32:00,67.1,38.6,30.01,WSW,238,5.0,7.0,35,0.00,,---,0.00,VWS V14.01,2013-07-09 14:32:00,
2013-07-09 08:33:00,67.3,38.7,30.01,WSW,238,2.0,7.0,35,0.00,,---,0.00,VWS V14.01,2013-07-09 14:33:00,
2013-07-09 08:34:00,67.4,38.1,30.01,WSW,238,5.0,5.0,34,0.00,,---,0.00,VWS V14.01,2013-07-09 14:34:00,
2013-07-09 08:35:00,67.6,39.0,30.01,SSW,207,7.0,7.0,35,0.00,,---,0.00,VWS V14.01,2013-07-09 14:35:00,
2013-07-09 08:36:00,67.5,38.2,30.01,WSW,240,7.0,7.0,34,0.00,,---,0.00,VWS V14.01,2013-07-09 14:36:00,
2013-07-09 08:37:00,67.9,38.5,30.01,SW,236,5.0,9.0,34,0.00,,---,0.00,VWS V14.01,2013-07-09 14:37:00,
2013-07-09 08:38:00,68.0,38.6,30.01,SW,236,2.0,5.0,34,0.00,,---,0.00,VWS V14.01,2013-07-09 14:38:00,
2013-07-09 08:39:00,68.2,38.0,30.01,West,263,7.0,9.0,33,0.00,,---,0.00,VWS V14.01,2013-07-09 14:39:00,
2013-07-09 08:40:00,68.3,38.1,30.01,SW,220,5.0,11.0,33,0.00,,---,0.00,VWS V14.01,2013-07-09 14:40:00,
2013-07-09 08:41:00,68.2,38.0,30.01,West,278,5.0,11.0,33,0.00,,---,0.00,VWS V14.01,2013-07-09 14:41:00,
2013-07-09 08:42:00,68.6,37.6,30.02,SW,227,11.0,11.0,32,0.00,,---,0.00,VWS V14.01,2013-07-09 14:42:00,
2013-07-09 08:43:00,68.8,36.1,30.01,SSW,196,4.0,11.0,30,0.00,,---,0.00,VWS V14.01,2013-07-09 14:43:00,
2013-07-09 08:44:00,68.9,36.2,30.01,SW,236,6.0,10.0,30,0.00,,---,0.00,VWS V14.01,2013-07-09 14:44:00,
2013-07-09 08:45:00,69.0,37.1,30.01,WSW,247,9.0,21.0,31,0.00,,---,0.00,VWS V14.01,2013-07-09 14:45:00,
2013-07-09 08:46:00,69.0,37.1,30.01,SW,226,8.0,8.0,31,0.00,,---,0.00,VWS V14.01,2013-07-09 14:46:00,
2013-07-09 08:47:00,69.3,36.6,30.01,SW,228,4.0,7.0,30,0.00,,---,0.00,VWS V14.01,2013-07-09 14:47:00,
2013-07-09 08:48:00,69.5,36.7,30.01,SW,225,10.0,11.0,30,0.00,,---,0.00,VWS V14.01,2013-07-09 14:48:00,
2013-07-09 08:49:00,69.5,35.0,30.02,SW,227,5.0,10.0,28,0.00,,---,0.00,VWS V14.01,2013-07-09 14:49:00,
2013-07-09 08:50:00,69.6,36.0,30.01,WSW,256,8.0,9.0,29,0.00,,---,0.00,VWS V14.01,2013-07-09 14:50:00,
2013-07-09 08:51:00,69.6,36.0,30.01,SW,236,9.0,9.0,29,0.00,,---,0.00,VWS V14.01,2013-07-09 14:51:00,
2013-07-09 08:52:00,69.8,37.0,30.01,WNW,290,0.0,6.0,30,0.00,,---,0.00,VWS V14.01,2013-07-09 14:52:00,
2013-07-09 08:53:00,69.9,36.2,30.02,West,272,7.0,8.0,29,0.00,,---,0.00,VWS V14.01,2013-07-09 14:53:00,
2013-07-09 08:54:00,70.1,35.5,30.02,NW,304,8.0,14.0,28,0.00,,---,0.00,VWS V14.01,2013-07-09 14:54:00,
2013-07-09 08:55:00,70.2,36.5,30.01,SSW,194,2.0,11.0,29,0.00,,---,0.00,VWS V14.01,2013-07-09 14:55:00,
2013-07-09 08:56:00,70.2,36.5,30.01,SSW,197,7.0,11.0,29,0.00,,---,0.00,VWS V14.01,2013-07-09 14:56:00,
2013-07-09 08:57:00,70.5,36.7,30.02,WSW,244,4.0,8.0,29,0.00,,---,0.00,VWS V14.01,2013-07-09 14:57:00,
2013-07-09 08:58:00,70.6,36.8,30.02,West,267,5.0,6.0,29,0.00,,---,0.00,VWS V14.01,2013-07-09 14:58:00,
2013-07-09 08:59:00,70.8,37.0,30.02,West,260,0.0,6.0,29,0.00,,---,0.00,VWS V14.01,2013-07-09 14:59:00,
2013-07-09 09:00:00,70.9,37.1,30.02,WNW,298,5.0,8.0,29,0.00,,---,0.00,VWS V14.01,2013-07-09 15:00:00,
2013-07-09 09:01:00,70.8,37.0,30.02,WNW,300,7.0,8.0,29,0.00,,---,0.00,VWS V14.01,2013-07-09 15:01:00,
2013-07-09 09:02:00,71.1,37.3,30.02,WNW,283,5.0,5.0,29,0.00,,---,0.00,VWS V14.01,2013-07-09 15:02:00,
2013-07-09 09:03:00,71.3,36.5,30.02,West,277,14.0,14.0,28,0.00,,---,0.00,VWS V14.01,2013-07-09 15:03:00,
2013-07-09 09:04:00,71.4,37.5,30.02,WNW,291,9.0,14.0,29,0.00,,---,0.00,VWS V14.01,2013-07-09 15:04:00,
2013-07-09 09:05:00,71.5,35.8,30.02,West,268,10.0,10.0,27,0.00,,---,0.00,VWS V14.01,2013-07-09 15:05:00,
2013-07-09 09:06:00,71.5,35.8,30.02,WNW,288,9.0,9.0,27,0.00,,---,0.00,VWS V14.01,2013-07-09 15:06:00,
2013-07-09 09:07:00,71.7,36.0,30.02,West,262,4.0,8.0,27,0.00,,---,0.00,VWS V14.01,2013-07-09 15:07:00,
2013-07-09 09:08:00,71.8,36.0,30.01,West,278,9.0,12.0,27,0.00,,---,0.00,VWS V14.01,2013-07-09 15:08:00,
2013-07-09 09:09:00,71.9,35.2,30.01,SW,234,5.0,9.0,26,0.00,,---,0.00,VWS V14.01,2013-07-09 15:09:00,
2013-07-09 09:10:00,71.9,35.2,30.01,SW,236,2.0,9.0,26,0.00,,---,0.00,VWS V14.01,2013-07-09 15:10:00,
2013-07-09 09:11:00,71.9,35.2,30.01,SW,236,2.0,9.0,26,0.00,,---,0.00,VWS V14.01,2013-07-09 15:11:00,
2013-07-09 09:12:00,72.0,36.2,30.02,SW,229,5.0,8.0,27,0.00,,---,0.00,VWS V14.01,2013-07-09 15:12:00,
2013-07-09 09:13:00,72.0,36.2,30.01,SW,225,8.0,11.0,27,0.00,,---,0.00,VWS V14.01,2013-07-09 15:13:00,
2013-07-09 09:14:00,72.1,36.3,30.01,SW,225,12.0,12.0,27,0.00,,---,0.00,VWS V14.01,2013-07-09 15:14:00,
2013-07-09 09:15:00,72.2,35.4,30.01,WSW,252,8.0,15.0,26,0.00,,---,0.00,VWS V14.01,2013-07-09 15:15:00,
2013-07-09 09:16:00,72.2,35.4,30.01,WSW,252,8.0,15.0,26,0.00,,---,0.00,VWS V14.01,2013-07-09 15:16:00,
2013-07-09 09:17:00,72.2,35.4,30.01,West,263,5.0,14.0,26,0.00,,---,0.00,VWS V14.01,2013-07-09 15:17:00,
2013-07-09 09:18:00,72.2,35.4,30.01,WSW,258,9.0,15.0,26,0.00,,---,0.00,VWS V14.01,2013-07-09 15:18:00,
2013-07-09 09:19:00,72.2,35.4,30.01,West,265,10.0,12.0,26,0.00,,---,0.00,VWS V14.01,2013-07-09 15:19:00,
2013-07-09 09:20:00,72.1,35.4,30.01,WSW,250,12.0,18.0,26,0.00,,---,0.00,VWS V14.01,2013-07-09 15:20:00,
2013-07-09 09:21:00,72.1,35.4,30.01,WSW,250,12.0,18.0,26,0.00,,---,0.00,VWS V14.01,2013-07-09 15:21:00,
2013-07-09 09:22:00,72.1,35.4,30.01,SW,233,8.0,11.0,26,0.00,,---,0.00,VWS V14.01,2013-07-09 15:22:00,
2013-07-09 09:23:00,72.1,35.4,30.01,WSW,247,6.0,11.0,26,0.00,,---,0.00,VWS V14.01,2013-07-09 15:23:00,
2013-07-09 09:24:00,72.0,35.3,30.01,SW,225,9.0,12.0,26,0.00,,---,0.00,VWS V14.01,2013-07-09 15:24:00,
2013-07-09 09:25:00,72.0,35.3,30.01,SW,220,15.0,15.0,26,0.00,,---,0.00,VWS V14.01,2013-07-09 15:25:00,
2013-07-09 09:26:00,72.1,35.4,30.02,West,264,4.0,15.0,26,0.00,,---,0.00,VWS V14.01,2013-07-09 15:26:00,
2013-07-09 09:27:00,72.0,35.3,30.02,West,263,6.0,15.0,26,0.00,,---,0.00,VWS V14.01,2013-07-09 15:27:00,
2013-07-09 09:28:00,72.2,36.4,30.01,West,269,5.0,7.0,27,0.00,,---,0.00,VWS V14.01,2013-07-09 15:28:00,
2013-07-09 09:29:00,72.2,36.4,30.01,South,190,7.0,9.0,27,0.00,,---,0.00,VWS V14.01,2013-07-09 15:29:00,
2013-07-09 09:30:00,72.3,35.5,30.01,SW,229,20.0,20.0,26,0.00,,---,0.00,VWS V14.01,2013-07-09 15:30:00,
2013-07-09 09:31:00,72.4,34.6,30.02,West,278,8.0,20.0,25,0.00,,---,0.00,VWS V14.01,2013-07-09 15:31:00,
2013-07-09 09:32:00,72.3,35.5,30.02,SSW,208,14.0,20.0,26,0.00,,---,0.00,VWS V14.01,2013-07-09 15:32:00,
2013-07-09 09:33:00,72.4,35.6,30.01,SSW,213,2.0,11.0,26,0.00,,---,0.00,VWS V14.01,2013-07-09 15:33:00,
2013-07-09 09:34:00,72.5,36.7,30.01,WSW,250,10.0,10.0,27,0.00,,---,0.00,VWS V14.01,2013-07-09 15:34:00,
2013-07-09 09:35:00,72.6,34.8,30.01,NNW,333,2.0,10.0,25,0.00,,---,0.00,VWS V14.01,2013-07-09 15:35:00,
2013-07-09 09:36:00,72.7,34.9,30.01,WNW,296,2.0,4.0,25,0.00,,---,0.00,VWS V14.01,2013-07-09 15:36:00,
2013-07-09 09:37:00,72.6,34.8,30.01,WNW,296,4.0,4.0,25,0.00,,---,0.00,VWS V14.01,2013-07-09 15:37:00,
2013-07-09 09:38:00,72.9,36.0,30.02,SW,227,3.0,9.0,26,0.00,,---,0.00,VWS V14.01,2013-07-09 15:38:00,
2013-07-09 09:39:00,73.0,35.1,30.01,WSW,243,11.0,11.0,25,0.00,,---,0.00,VWS V14.01,2013-07-09 15:39:00,
2013-07-09 09:40:00,73.1,36.2,30.01,SSW,205,16.0,16.0,26,0.00,,---,0.00,VWS V14.01,2013-07-09 15:40:00,
2013-07-09 09:41:00,73.1,34.2,30.02,WSW,238,10.0,19.0,24,0.00,,---,0.00,VWS V14.01,2013-07-09 15:41:00,
2013-07-09 09:42:00,73.1,36.2,30.02,WSW,257,19.0,19.0,26,0.00,,---,0.00,VWS V14.01,2013-07-09 15:42:00,
2013-07-09 09:43:00,73.2,35.3,30.01,WSW,250,10.0,10.0,25,0.00,,---,0.00,VWS V14.01,2013-07-09 15:43:00,
2013-07-09 09:44:00,73.3,35.4,30.02,SW,219,7.0,13.0,25,0.00,,---,0.00,VWS V14.01,2013-07-09 15:44:00,
2013-07-09 09:45:00,73.4,34.5,30.02,SW,225,5.0,14.0,24,0.00,,---,0.00,VWS V14.01,2013-07-09 15:45:00,
2013-07-09 09:46:00,73.4,35.5,30.01,WSW,252,10.0,14.0,25,0.00,,---,0.00,VWS V14.01,2013-07-09 15:46:00,
2013-07-09 09:47:00,73.4,34.5,30.01,WSW,237,6.0,9.0,24,0.00,,---,0.00,VWS V14.01,2013-07-09 15:47:00,
2013-07-09 09:48:00,73.4,34.5,30.02,SSW,200,9.0,12.0,24,0.00,,---,0.00,VWS V14.01,2013-07-09 15:48:00,
2013-07-09 09:49:00,73.4,34.5,30.02,SW,228,8.0,10.0,24,0.00,,---,0.00,VWS V14.01,2013-07-09 15:49:00,
2013-07-09 09:50:00,73.4,34.5,30.02,WSW,244,5.0,11.0,24,0.00,,---,0.00,VWS V14.01,2013-07-09 15:50:00,
2013-07-09 09:51:00,73.5,34.5,30.01,SW,236,9.0,10.0,24,0.00,,---,0.00,VWS V14.01,2013-07-09 15:51:00,
2013-07-09 09:52:00,73.5,35.6,30.01,WSW,252,8.0,10.0,25,0.00,,---,0.00,VWS V14.01,2013-07-09 15:52:00,
2013-07-09 09:53:00,73.5,33.5,30.01,SW,236,4.0,10.0,23,0.00,,---,0.00,VWS V14.01,2013-07-09 15:53:00,
2013-07-09 09:54:00,73.5,34.5,30.01,SSW,202,8.0,8.0,24,0.00,,---,0.00,VWS V14.01,2013-07-09 15:54:00,
2013-07-09 09:55:00,73.6,35.6,30.01,SSW,192,2.0,13.0,25,0.00,,---,0.00,VWS V14.01,2013-07-09 15:55:00,
2013-07-09 09:56:00,73.6,34.6,30.01,West,263,8.0,11.0,24,0.00,,---,0.00,VWS V14.01,2013-07-09 15:56:00,
2013-07-09 09:57:00,73.6,34.6,30.01,SSW,212,9.0,9.0,24,0.00,,---,0.00,VWS V14.01,2013-07-09 15:57:00,
2013-07-09 09:58:00,73.7,33.6,30.02,WSW,252,10.0,13.0,23,0.00,,---,0.00,VWS V14.01,2013-07-09 15:58:00,
2013-07-09 09:59:00,73.7,34.7,30.01,WSW,254,8.0,11.0,24,0.00,,---,0.00,VWS V14.01,2013-07-09 15:59:00,
2013-07-09 10:00:00,73.7,33.6,30.02,WSW,240,9.0,9.0,23,0.00,,---,0.00,VWS V14.01,2013-07-09 16:00:00,
2013-07-09 10:01:00,73.7,34.7,30.02,WSW,255,8.0,10.0,24,0.00,,---,0.00,VWS V14.01,2013-07-09 16:01:00,
2013-07-09 10:02:00,73.7,34.7,30.02,WNW,289,7.0,10.0,24,0.00,,---,0.00,VWS V14.01,2013-07-09 16:02:00,
2013-07-09 10:03:00,73.7,34.7,30.02,SW,225,7.0,13.0,24,0.00,,---,0.00,VWS V14.01,2013-07-09 16:03:00,
2013-07-09 10:04:00,73.8,34.8,30.01,WNW,290,7.0,11.0,24,0.00,,---,0.00,VWS V14.01,2013-07-09 16:04:00,
2013-07-09 10:05:00,73.8,34.8,30.01,SW,235,8.0,8.0,24,0.00,,---,0.00,VWS V14.01,2013-07-09 16:05:00,
2013-07-09 10:06:00,73.9,34.9,30.01,WSW,254,6.0,10.0,24,0.00,,---,0.00,VWS V14.01,2013-07-09 16:06:00,
2013-07-09 10:07:00,73.8,34.8,30.01,WSW,258,8.0,10.0,24,0.00,,---,0.00,VWS V14.01,2013-07-09 16:07:00,
2013-07-09 10:08:00,73.9,33.8,30.02,WSW,248,6.0,11.0,23,0.00,,---,0.00,VWS V14.01,2013-07-09 16:08:00,
2013-07-09 10:09:00,74.0,35.0,30.02,SW,225,4.0,8.0,24,0.00,,---,0.00,VWS V14.01,2013-07-09 16:09:00,
2013-07-09 10:10:00,74.1,35.0,30.02,WSW,248,3.0,7.0,24,0.00,,---,0.00,VWS V14.01,2013-07-09 16:10:00,
2013-07-09 10:11:00,74.2,35.1,30.02,SW,225,6.0,12.0,24,0.00,,---,0.00,VWS V14.01,2013-07-09 16:11:00,
2013-07-09 10:12:00,74.4,34.2,30.02,SW,225,8.0,11.0,23,0.00,,---,0.00,VWS V14.01,2013-07-09 16:12:00,
2013-07-09 10:13:00,74.5,34.3,30.02,West,270,5.0,7.0,23,0.00,,---,0.00,VWS V14.01,2013-07-09 16:13:00,
2013-07-09 10:14:00,74.6,34.4,30.02,SSW,202,7.0,10.0,23,0.00,,---,0.00,VWS V14.01,2013-07-09 16:14:00,
2013-07-09 10:15:00,74.7,34.5,30.02,SW,225,6.0,10.0,23,0.00,,---,0.00,VWS V14.01,2013-07-09 16:15:00,
2013-07-09 10:16:00,74.9,34.6,30.02,WSW,248,6.0,8.0,23,0.00,,---,0.00,VWS V14.01,2013-07-09 16:16:00,
2013-07-09 10:17:00,75.1,34.8,30.02,WSW,248,7.0,9.0,23,0.00,,---,0.00,VWS V14.01,2013-07-09 16:17:00,
2013-07-09 10:18:00,75.2,36.0,30.02,WSW,248,4.0,8.0,24,0.00,,---,0.00,VWS V14.01,2013-07-09 16:18:00,
2013-07-09 10:19:00,75.4,34.0,30.02,SW,225,3.0,6.0,22,0.00,,---,0.00,VWS V14.01,2013-07-09 16:19:00,
2013-07-09 10:20:00,75.6,35.2,30.02,SW,225,2.0,6.0,23,0.00,,---,0.00,VWS V14.01,2013-07-09 16:20:00,
2013-07-09 10:21:00,75.7,35.3,30.02,SW,225,5.0,9.0,23,0.00,,---,0.00,VWS V14.01,2013-07-09 16:21:00,
2013-07-09 10:22:00,75.8,35.4,30.02,WSW,248,10.0,18.0,23,0.00,,---,0.00,VWS V14.01,2013-07-09 16:22:00,
2013-07-09 10:23:00,75.9,34.4,30.02,SW,225,10.0,14.0,22,0.00,,---,0.00,VWS V14.01,2013-07-09 16:23:00,
2013-07-09 10:24:00,75.9,34.4,30.02,West,270,10.0,20.0,22,0.00,,---,0.00,VWS V14.01,2013-07-09 16:24:00,
2013-07-09 10:25:00,75.9,34.4,30.02,WSW,248,12.0,19.0,22,0.00,,---,0.00,VWS V14.01,2013-07-09 16:25:00,
2013-07-09 10:26:00,75.9,33.2,30.02,SW,225,9.0,15.0,21,0.00,,---,0.00,VWS V14.01,2013-07-09 16:26:00,
2013-07-09 10:27:00,75.8,33.1,30.02,WSW,248,8.0,18.0,21,0.00,,---,0.00,VWS V14.01,2013-07-09 16:27:00,
2013-07-09 10:28:00,75.8,33.1,30.02,West,270,12.0,18.0,21,0.00,,---,0.00,VWS V14.01,2013-07-09 16:28:00,
2013-07-09 10:29:00,75.7,33.0,30.02,West,270,10.0,15.0,21,0.00,,---,0.00,VWS V14.01,2013-07-09 16:29:00,
2013-07-09 10:30:00,75.6,33.0,30.02,WSW,248,6.0,9.0,21,0.00,,---,0.00,VWS V14.01,2013-07-09 16:30:00,
2013-07-09 10:31:00,75.5,32.9,30.02,WSW,248,1.0,4.0,21,0.00,,---,0.00,VWS V14.01,2013-07-09 16:31:00,
2013-07-09 10:32:00,75.3,32.7,30.02,West,270,4.0,7.0,21,0.00,,---,0.00,VWS V14.01,2013-07-09 16:32:00,
2013-07-09 10:33:00,75.3,33.9,30.02,WNW,292,5.0,8.0,22,0.00,,---,0.00,VWS V14.01,2013-07-09 16:33:00,
2013-07-09 10:34:00,75.2,33.8,30.02,WNW,292,5.0,10.0,22,0.00,,---,0.00,VWS V14.01,2013-07-09 16:34:00,
2013-07-09 10:35:00,75.2,34.9,30.02,NW,315,5.0,9.0,23,0.00,,---,0.00,VWS V14.01,2013-07-09 16:35:00,
2013-07-09 10:36:00,75.2,34.9,30.02,WSW,248,8.0,11.0,23,0.00,,---,0.00,VWS V14.01,2013-07-09 16:36:00,
2013-07-09 10:37:00,75.2,34.9,30.02,WSW,248,8.0,14.0,23,0.00,,---,0.00,VWS V14.01,2013-07-09 16:37:00,
2013-07-09 10:38:00,75.4,35.1,30.02,WSW,248,6.0,12.0,23,0.00,,---,0.00,VWS V14.01,2013-07-09 16:38:00,
2013-07-09 10:39:00,75.5,35.2,30.02,WSW,248,8.0,12.0,23,0.00,,---,0.00,VWS V14.01,2013-07-09 16:39:00,
2013-07-09 10:40:00,75.6,35.2,30.02,West,270,10.0,14.0,23,0.00,,---,0.00,VWS V14.01,2013-07-09 16:40:00,
2013-07-09 10:41:00,75.7,34.2,30.02,West,270,8.0,14.0,22,0.00,,---,0.00,VWS V14.01,2013-07-09 16:41:00,
2013-07-09 10:42:00,75.7,33.0,30.02,SW,225,4.0,8.0,21,0.00,,---,0.00,VWS V14.01,2013-07-09 16:42:00,
2013-07-09 10:43:00,75.7,35.3,30.02,SW,225,3.0,8.0,23,0.00,,---,0.00,VWS V14.01,2013-07-09 16:43:00,
2013-07-09 10:44:00,75.7,34.2,30.02,WNW,292,9.0,14.0,22,0.00,,---,0.00,VWS V14.01,2013-07-09 16:44:00,
2013-07-09 10:45:00,75.7,35.3,30.02,WNW,292,10.0,13.0,23,0.00,,---,0.00,VWS V14.01,2013-07-09 16:45:00,
2013-07-09 10:46:00,75.7,35.3,30.02,West,270,11.0,18.0,23,0.00,,---,0.00,VWS V14.01,2013-07-09 16:46:00,
2013-07-09 10:47:00,75.7,34.2,30.02,WSW,248,5.0,9.0,22,0.00,,---,0.00,VWS V14.01,2013-07-09 16:47:00,
2013-07-09 10:48:00,75.8,34.3,30.02,SW,225,5.0,11.0,22,0.00,,---,0.00,VWS V14.01,2013-07-09 16:48:00,
2013-07-09 10:49:00,75.9,33.2,30.02,WSW,248,10.0,13.0,21,0.00,,---,0.00,VWS V14.01,2013-07-09 16:49:00,
2013-07-09 10:50:00,75.9,34.4,30.02,WSW,248,10.0,18.0,22,0.00,,---,0.00,VWS V14.01,2013-07-09 16:50:00,
2013-07-09 10:51:00,76.0,34.5,30.02,West,270,8.0,18.0,22,0.00,,---,0.00,VWS V14.01,2013-07-09 16:51:00,
2013-07-09 10:52:00,76.2,33.5,30.02,WSW,248,10.0,21.0,21,0.00,,---,0.00,VWS V14.01,2013-07-09 16:52:00,
2013-07-09 10:53:00,76.3,34.7,30.02,WSW,248,6.0,10.0,22,0.00,,---,0.00,VWS V14.01,2013-07-09 16:53:00,
2013-07-09 10:54:00,76.5,34.9,30.02,WSW,248,6.0,9.0,22,0.00,,---,0.00,VWS V14.01,2013-07-09 16:54:00,
2013-07-09 10:55:00,76.7,33.9,30.02,West,270,9.0,15.0,21,0.00,,---,0.00,VWS V14.01,2013-07-09 16:55:00,
2013-07-09 10:56:00,76.9,34.0,30.02,West,270,7.0,10.0,21,0.00,,---,0.00,VWS V14.01,2013-07-09 16:56:00,
2013-07-09 10:57:00,76.9,34.0,30.02,WSW,248,7.0,13.0,21,0.00,,---,0.00,VWS V14.01,2013-07-09 16:57:00,
2013-07-09 10:58:00,76.9,34.0,30.02,West,270,12.0,18.0,21,0.00,,---,0.00,VWS V14.01,2013-07-09 16:58:00,
2013-07-09 10:59:00,76.8,34.0,30.02,WNW,292,8.0,12.0,21,0.00,,---,0.00,VWS V14.01,2013-07-09 16:59:00,
2013-07-09 11:00:00,76.6,32.6,30.02,West,270,6.0,10.0,20,0.00,,---,0.00,VWS V14.01,2013-07-09 17:00:00,
2013-07-09 11:01:00,76.4,34.8,30.02,SW,225,8.0,10.0,22,0.00,,---,0.00,VWS V14.01,2013-07-09 17:01:00,
2013-07-09 11:02:00,76.1,33.4,30.02,SW,225,12.0,19.0,21,0.00,,---,0.00,VWS V14.01,2013-07-09 17:02:00,
2013-07-09 11:03:00,75.8,34.3,30.02,WSW,248,10.0,14.0,22,0.00,,---,0.00,VWS V14.01,2013-07-09 17:03:00,
2013-07-09 11:04:00,75.5,32.9,30.02,WSW,248,10.0,14.0,21,0.00,,---,0.00,VWS V14.01,2013-07-09 17:04:00,
2013-07-09 11:05:00,75.2,33.8,30.02,WSW,248,9.0,18.0,22,0.00,,---,0.00,VWS V14.01,2013-07-09 17:05:00,
2013-07-09 11:06:00,75.0,33.6,30.02,WSW,248,14.0,21.0,22,0.00,,---,0.00,VWS V14.01,2013-07-09 17:06:00,
2013-07-09 11:07:00,74.8,34.6,30.02,WSW,248,10.0,18.0,23,0.00,,---,0.00,VWS V14.01,2013-07-09 17:07:00,
2013-07-09 11:08:00,74.7,34.5,30.02,West,270,6.0,12.0,23,0.00,,---,0.00,VWS V14.01,2013-07-09 17:08:00,
2013-07-09 11:09:00,74.7,35.5,30.02,West,270,6.0,11.0,24,0.00,,---,0.00,VWS V14.01,2013-07-09 17:09:00,
2013-07-09 11:10:00,74.9,35.7,30.02,West,270,8.0,12.0,24,0.00,,---,0.00,VWS V14.01,2013-07-09 17:10:00,
2013-07-09 11:11:00,75.0,34.7,30.02,West,270,9.0,19.0,23,0.00,,---,0.00,VWS V14.01,2013-07-09 17:11:00,
2013-07-09 11:12:00,75.2,36.0,30.02,WSW,248,10.0,16.0,24,0.00,,---,0.00,VWS V14.01,2013-07-09 17:12:00,
2013-07-09 11:13:00,75.4,36.1,30.02,SW,225,7.0,10.0,24,0.00,,---,0.00,VWS V14.01,2013-07-09 17:13:00,
2013-07-09 11:14:00,75.7,35.3,30.02,South,180,8.0,15.0,23,0.00,,---,0.00,VWS V14.01,2013-07-09 17:14:00,
2013-07-09 11:15:00,75.9,34.4,30.02,SW,225,9.0,14.0,22,0.00,,---,0.00,VWS V14.01,2013-07-09 17:15:00,
2013-07-09 11:16:00,76.1,34.5,30.02,SW,225,10.0,18.0,22,0.00,,---,0.00,VWS V14.01,2013-07-09 17:16:00,
2013-07-09 11:17:00,76.2,34.6,30.02,SSW,202,9.0,14.0,22,0.00,,---,0.00,VWS V14.01,2013-07-09 17:17:00,
2013-07-09 11:18:00,76.4,34.8,30.02,SW,225,9.0,14.0,22,0.00,,---,0.00,VWS V14.01,2013-07-09 17:18:00,
2013-07-09 11:19:00,76.5,34.9,30.02,SW,225,9.0,14.0,22,0.00,,---,0.00,VWS V14.01,2013-07-09 17:19:00,
2013-07-09 11:20:00,76.6,33.8,30.02,SW,225,8.0,14.0,21,0.00,,---,0.00,VWS V14.01,2013-07-09 17:20:00,
2013-07-09 11:21:00,76.7,35.0,30.02,SSW,202,7.0,14.0,22,0.00,,---,0.00,VWS V14.01,2013-07-09 17:21:00,
2013-07-09 11:22:00,76.8,35.1,30.02,NW,315,5.0,14.0,22,0.00,,---,0.00,VWS V14.01,2013-07-09 17:22:00,
2013-07-09 11:23:00,77.1,35.4,30.02,SW,225,4.0,10.0,22,0.00,,---,0.00,VWS V14.01,2013-07-09 17:23:00,
2013-07-09 11:24:00,77.3,35.5,30.02,South,180,4.0,11.0,22,0.00,,---,0.00,VWS V14.01,2013-07-09 17:24:00,
2013-07-09 11:25:00,77.5,35.7,30.03,West,270,8.0,12.0,22,0.00,,---,0.00,VWS V14.01,2013-07-09 17:25:00,
2013-07-09 11:26:00,77.8,34.8,30.03,SW,225,10.0,13.0,21,0.00,,---,0.00,VWS V14.01,2013-07-09 17:26:00,
2013-07-09 11:27:00,77.8,34.8,30.03,South,180,9.0,18.0,21,0.00,,---,0.00,VWS V14.01,2013-07-09 17:27:00,
2013-07-09 11:28:00,77.8,36.0,30.03,WSW,248,8.0,12.0,22,0.00,,---,0.00,VWS V14.01,2013-07-09 17:28:00,
2013-07-09 11:29:00,77.7,34.7,30.03,West,270,9.0,13.0,21,0.00,,---,0.00,VWS V14.01,2013-07-09 17:29:00,
2013-07-09 11:30:00,77.5,34.5,30.03,WSW,248,9.0,13.0,21,0.00,,---,0.00,VWS V14.01,2013-07-09 17:30:00,
2013-07-09 11:31:00,77.3,34.4,30.03,WSW,248,8.0,10.0,21,0.00,,---,0.00,VWS V14.01,2013-07-09 17:31:00,
2013-07-09 11:32:00,77.0,34.1,30.03,SW,225,7.0,10.0,21,0.00,,---,0.00,VWS V14.01,2013-07-09 17:32:00,
2013-07-09 11:33:00,76.7,35.0,30.02,SW,225,5.0,7.0,22,0.00,,---,0.00,VWS V14.01,2013-07-09 17:33:00,
2013-07-09 11:34:00,76.5,33.7,30.02,West,270,7.0,10.0,21,0.00,,---,0.00,VWS V14.01,2013-07-09 17:34:00,
2013-07-09 11:35:00,76.2,33.5,30.02,West,270,9.0,16.0,21,0.00,,---,0.00,VWS V14.01,2013-07-09 17:35:00,
2013-07-09 11:36:00,75.9,35.5,30.02,WNW,292,4.0,7.0,23,0.00,,---,0.00,VWS V14.01,2013-07-09 17:36:00,
2013-07-09 11:37:00,75.6,34.1,30.02,WSW,248,4.0,7.0,22,0.00,,---,0.00,VWS V14.01,2013-07-09 17:37:00,
2013-07-09 11:38:00,75.4,34.0,30.02,WSW,248,6.0,11.0,22,0.00,,---,0.00,VWS V14.01,2013-07-09 17:38:00,
2013-07-09 11:39:00,75.2,34.9,30.02,WNW,292,7.0,14.0,23,0.00,,---,0.00,VWS V14.01,2013-07-09 17:39:00,
2013-07-09 11:40:00,75.0,34.7,30.02,SSW,202,6.0,11.0,23,0.00,,---,0.00,VWS V14.01,2013-07-09 17:40:00,
2013-07-09 11:41:00,74.8,35.6,30.03,SW,225,7.0,9.0,24,0.00,,---,0.00,VWS V14.01,2013-07-09 17:41:00,
2013-07-09 11:42:00,74.6,35.5,30.02,WSW,248,6.0,9.0,24,0.00,,---,0.00,VWS V14.01,2013-07-09 17:42:00,
2013-07-09 11:43:00,74.4,35.3,30.03,SW,225,7.0,10.0,24,0.00,,---,0.00,VWS V14.01,2013-07-09 17:43:00,
2013-07-09 11:44:00,74.2,35.1,30.02,SW,225,5.0,8.0,24,0.00,,---,0.00,VWS V14.01,2013-07-09 17:44:00,
2013-07-09 11:45:00,74.1,35.0,30.02,SW,225,5.0,8.0,24,0.00,,---,0.00,VWS V14.01,2013-07-09 17:45:00,
2013-07-09 11:46:00,74.0,33.9,30.02,SW,225,4.0,8.0,23,0.00,,---,0.00,VWS V14.01,2013-07-09 17:46:00,
2013-07-09 11:47:00,73.9,34.9,30.02,SW,225,2.0,5.0,24,0.00,,---,0.00,VWS V14.01,2013-07-09 17:47:00,
2013-07-09 11:48:00,73.9,35.9,30.02,SW,225,2.0,4.0,25,0.00,,---,0.00,VWS V14.01,2013-07-09 17:48:00,
2013-07-09 11:49:00,73.9,35.9,30.03,SW,225,4.0,7.0,25,0.00,,---,0.00,VWS V14.01,2013-07-09 17:49:00,
2013-07-09 11:50:00,74.0,35.0,30.02,WSW,248,2.0,5.0,24,0.00,,---,0.00,VWS V14.01,2013-07-09 17:50:00,
2013-07-09 11:51:00,74.1,35.0,30.02,SSW,202,6.0,9.0,24,0.00,,---,0.00,VWS V14.01,2013-07-09 17:51:00,
2013-07-09 11:52:00,74.3,34.1,30.02,West,270,7.0,12.0,23,0.00,,---,0.00,VWS V14.01,2013-07-09 17:52:00,
2013-07-09 11:53:00,74.3,35.2,30.02,West,270,5.0,12.0,24,0.00,,---,0.00,VWS V14.01,2013-07-09 17:53:00,
2013-07-09 11:54:00,74.5,36.4,30.02,SW,225,9.0,11.0,25,0.00,,---,0.00,VWS V14.01,2013-07-09 17:54:00,
2013-07-09 11:55:00,74.6,35.5,30.02,SW,225,4.0,9.0,24,0.00,,---,0.00,VWS V14.01,2013-07-09 17:55:00,
2013-07-09 11:56:00,74.8,34.6,30.02,SSW,202,4.0,7.0,23,0.00,,---,0.00,VWS V14.01,2013-07-09 17:56:00,
2013-07-09 11:57:00,74.9,35.7,30.02,SW,225,10.0,14.0,24,0.00,,---,0.00,VWS V14.01,2013-07-09 17:57:00,
2013-07-09 11:58:00,75.1,35.9,30.02,WSW,248,10.0,13.0,24,0.00,,---,0.00,VWS V14.01,2013-07-09 17:58:00,
2013-07-09 11:59:00,75.3,33.9,30.02,SW,225,4.0,7.0,22,0.00,,---,0.00,VWS V14.01,2013-07-09 17:59:00,
2013-07-09 12:00:00,75.5,35.2,30.02,WSW,248,2.0,5.0,23,0.00,,---,0.00,VWS V14.01,2013-07-09 18:00:00,
2013-07-09 12:01:00,75.7,34.2,30.02,WSW,248,3.0,7.0,22,0.00,,---,0.00,VWS V14.01,2013-07-09 18:01:00,
2013-07-09 12:02:00,75.9,35.5,30.02,WSW,248,3.0,7.0,23,0.00,,---,0.00,VWS V14.01,2013-07-09 18:02:00,
2013-07-09 12:03:00,76.1,35.7,30.02,SSW,202,8.0,15.0,23,0.00,,---,0.00,VWS V14.01,2013-07-09 18:03:00,
2013-07-09 12:04:00,76.3,34.7,30.02,SSW,202,11.0,14.0,22,0.00,,---,0.00,VWS V14.01,2013-07-09 18:04:00,
2013-07-09 12:05:00,76.3,33.5,30.02,SSW,202,9.0,12.0,21,0.00,,---,0.00,VWS V14.01,2013-07-09 18:05:00,
2013-07-09 12:06:00,76.3,34.7,30.02,South,180,5.0,8.0,22,0.00,,---,0.00,VWS V14.01,2013-07-09 18:06:00,
2013-07-09 12:07:00,76.3,34.7,30.02,SSE,158,7.0,9.0,22,0.00,,---,0.00,VWS V14.01,2013-07-09 18:07:00,
2013-07-09 12:08:00,76.3,34.7,30.02,SSE,158,7.0,11.0,22,0.00,,---,0.00,VWS V14.01,2013-07-09 18:08:00,
2013-07-09 12:09:00,76.3,35.8,30.02,West,270,9.0,13.0,23,0.00,,---,0.00,VWS V14.01,2013-07-09 18:09:00,
2013-07-09 12:10:00,76.2,34.6,30.02,West,262,5.0,9.0,22,0.00,,---,0.00,VWS V14.01,2013-07-09 18:10:00,
2013-07-09 12:11:00,76.3,34.7,30.02,West,263,5.0,6.0,22,0.00,,---,0.00,VWS V14.01,2013-07-09 18:11:00,
2013-07-09 12:12:00,76.3,35.8,30.02,West,270,9.0,13.0,23,0.00,,---,0.00,VWS V14.01,2013-07-09 18:12:00,
2013-07-09 12:13:00,76.1,35.7,30.02,WSW,253,8.0,8.0,23,0.00,,---,0.00,VWS V14.01,2013-07-09 18:13:00,
2013-07-09 12:14:00,76.1,34.5,30.02,West,265,3.0,9.0,22,0.00,,---,0.00,VWS V14.01,2013-07-09 18:14:00,
2013-07-09 12:15:00,76.1,34.5,30.01,SW,222,4.0,6.0,22,0.00,,---,0.00,VWS V14.01,2013-07-09 18:15:00,
2013-07-09 12:16:00,76.1,34.5,30.01,SW,222,1.0,4.0,22,0.00,,---,0.00,VWS V14.01,2013-07-09 18:16:00,
2013-07-09 12:17:00,76.1,34.5,30.01,SW,222,0.0,4.0,22,0.00,,---,0.00,VWS V14.01,2013-07-09 18:17:00,
2013-07-09 12:18:00,76.1,36.7,30.02,SW,221,3.0,3.0,24,0.00,,---,0.00,VWS V14.01,2013-07-09 18:18:00,
2013-07-09 12:19:00,76.2,35.7,30.01,SSW,204,5.0,10.0,23,0.00,,---,0.00,VWS V14.01,2013-07-09 18:19:00,
2013-07-09 12:20:00,76.3,35.8,30.01,WNW,297,2.0,10.0,23,0.00,,---,0.00,VWS V14.01,2013-07-09 18:20:00,
2013-07-09 12:21:00,76.4,35.9,30.01,SSW,207,2.0,5.0,23,0.00,,---,0.00,VWS V14.01,2013-07-09 18:21:00,
2013-07-09 12:22:00,76.3,35.8,30.01,SSW,207,4.0,5.0,23,0.00,,---,0.00,VWS V14.01,2013-07-09 18:22:00,
2013-07-09 12:23:00,76.4,35.9,30.01,SW,230,5.0,14.0,23,0.00,,---,0.00,VWS V14.01,2013-07-09 18:23:00,
2013-07-09 12:24:00,76.4,34.8,30.01,WSW,254,9.0,15.0,22,0.00,,---,0.00,VWS V14.01,2013-07-09 18:24:00,
2013-07-09 12:25:00,76.3,34.7,30.01,West,267,8.0,9.0,22,0.00,,---,0.00,VWS V14.01,2013-07-09 18:25:00,
2013-07-09 12:26:00,76.2,35.7,30.01,SSW,201,8.0,11.0,23,0.00,,---,0.00,VWS V14.01,2013-07-09 18:26:00,
2013-07-09 12:27:00,76.2,35.7,30.01,West,262,11.0,11.0,23,0.00,,---,0.00,VWS V14.01,2013-07-09 18:27:00,
2013-07-09 12:28:00,76.2,35.7,30.01,SSW,211,6.0,15.0,23,0.00,,---,0.00,VWS V14.01,2013-07-09 18:28:00,
2013-07-09 12:29:00,76.2,35.7,30.01,SW,233,7.0,13.0,23,0.00,,---,0.00,VWS V14.01,2013-07-09 18:29:00,
2013-07-09 12:30:00,76.3,36.9,30.01,SW,231,7.0,12.0,24,0.00,,---,0.00,VWS V14.01,2013-07-09 18:30:00,
2013-07-09 12:31:00,76.4,37.0,30.01,SW,215,13.0,15.0,24,0.00,,---,0.00,VWS V14.01,2013-07-09 18:31:00,
2013-07-09 12:32:00,76.4,37.0,30.01,SSW,209,15.0,15.0,24,0.00,,---,0.00,VWS V14.01,2013-07-09 18:32:00,
2013-07-09 12:33:00,76.3,35.8,30.01,South,178,8.0,11.0,23,0.00,,---,0.00,VWS V14.01,2013-07-09 18:33:00,
2013-07-09 12:34:00,76.2,35.7,30.01,SW,225,11.0,11.0,23,0.00,,---,0.00,VWS V14.01,2013-07-09 18:34:00,
2013-07-09 12:35:00,76.1,35.7,30.01,SW,218,7.0,14.0,23,0.00,,---,0.00,VWS V14.01,2013-07-09 18:35:00,
2013-07-09 12:36:00,75.9,35.5,30.01,SW,220,2.0,9.0,23,0.00,,---,0.00,VWS V14.01,2013-07-09 18:36:00,
2013-07-09 12:37:00,76.0,35.6,30.01,SW,220,6.0,9.0,23,0.00,,---,0.00,VWS V14.01,2013-07-09 18:37:00,
2013-07-09 12:38:00,75.6,36.3,30.01,West,261,8.0,8.0,24,0.00,,---,0.00,VWS V14.01,2013-07-09 18:38:00,
2013-07-09 12:39:00,75.5,36.2,30.01,WSW,246,10.0,10.0,24,0.00,,---,0.00,VWS V14.01,2013-07-09 18:39:00,
2013-07-09 12:40:00,75.5,35.2,30.01,WSW,248,9.0,13.0,23,0.00,,---,0.00,VWS V14.01,2013-07-09 18:40:00,
2013-07-09 12:41:00,75.4,34.0,30.01,WSW,246,0.0,12.0,22,0.00,,---,0.00,VWS V14.01,2013-07-09 18:41:00,
2013-07-09 12:42:00,75.4,34.0,30.01,WSW,246,1.0,12.0,22,0.00,,---,0.00,VWS V14.01,2013-07-09 18:42:00,
2013-07-09 12:43:00,75.6,33.0,30.01,WSW,251,8.0,15.0,21,0.00,,---,0.00,VWS V14.01,2013-07-09 18:43:00,
2013-07-09 12:44:00,75.8,33.1,30.01,WSW,257,6.0,13.0,21,0.00,,---,0.00,VWS V14.01,2013-07-09 18:44:00,
2013-07-09 12:45:00,76.1,32.2,30.01,WSW,243,7.0,9.0,20,0.00,,---,0.00,VWS V14.01,2013-07-09 18:45:00,
2013-07-09 12:46:00,76.3,33.5,30.01,SW,220,2.0,10.0,21,0.00,,---,0.00,VWS V14.01,2013-07-09 18:46:00,
2013-07-09 12:47:00,76.3,33.5,30.01,SW,220,2.0,10.0,21,0.00,,---,0.00,VWS V14.01,2013-07-09 18:47:00,
2013-07-09 12:48:00,77.1,33.0,30.00,West,265,4.0,9.0,20,0.00,,---,0.00,VWS V14.01,2013-07-09 18:48:00,
2013-07-09 12:49:00,77.3,33.1,30.00,SSW,212,2.0,7.0,20,0.00,,---,0.00,VWS V14.01,2013-07-09 18:49:00,
2013-07-09 12:50:00,77.6,33.4,30.00,SW,222,11.0,11.0,20,0.00,,---,0.00,VWS V14.01,2013-07-09 18:50:00,
2013-07-09 12:51:00,77.8,33.6,30.00,SW,219,12.0,12.0,20,0.00,,---,0.00,VWS V14.01,2013-07-09 18:51:00,
2013-07-09 12:52:00,77.8,33.6,30.00,SW,219,12.0,12.0,20,0.00,,---,0.00,VWS V14.01,2013-07-09 18:52:00,
2013-07-09 12:53:00,78.0,34.9,30.00,WSW,254,5.0,14.0,21,0.00,,---,0.00,VWS V14.01,2013-07-09 18:53:00,
2013-07-09 12:54:00,78.0,34.9,30.01,WSW,240,13.0,13.0,21,0.00,,---,0.00,VWS V14.01,2013-07-09 18:54:00,
2013-07-09 12:55:00,78.0,34.9,30.00,WSW,246,11.0,16.0,21,0.00,,---,0.00,VWS V14.01,2013-07-09 18:55:00,
2013-07-09 12:56:00,77.9,34.9,30.00,West,271,9.0,15.0,21,0.00,,---,0.00,VWS V14.01,2013-07-09 18:56:00,
2013-07-09 12:57:00,77.9,34.9,30.00,West,271,9.0,15.0,21,0.00,,---,0.00,VWS V14.01,2013-07-09 18:57:00,
2013-07-09 12:58:00,77.9,36.0,30.00,WNW,291,14.0,14.0,22,0.00,,---,0.00,VWS V14.01,2013-07-09 18:58:00,
2013-07-09 12:59:00,77.9,36.0,30.00,WSW,249,6.0,14.0,22,0.00,,---,0.00,VWS V14.01,2013-07-09 18:59:00,
2013-07-09 13:00:00,77.8,36.0,30.01,WSW,257,15.0,15.0,22,0.00,,---,0.00,VWS V14.01,2013-07-09 19:00:00,
2013-07-09 13:01:00,77.7,34.7,30.00,West,277,4.0,15.0,21,0.00,,---,0.00,VWS V14.01,2013-07-09 19:01:00,
2013-07-09 13:02:00,77.7,34.7,30.00,West,277,4.0,15.0,21,0.00,,---,0.00,VWS V14.01,2013-07-09 19:02:00,
2013-07-09 13:03:00,77.3,34.4,30.00,NW,325,5.0,12.0,21,0.00,,---,0.00,VWS V14.01,2013-07-09 19:03:00,
2013-07-09 13:04:00,77.1,35.4,30.00,WNW,294,8.0,10.0,22,0.00,,---,0.00,VWS V14.01,2013-07-09 19:04:00,
2013-07-09 13:05:00,77.0,34.1,30.00,West,265,6.0,13.0,21,0.00,,---,0.00,VWS V14.01,2013-07-09 19:05:00,
2013-07-09 13:06:00,76.8,35.1,30.00,WNW,294,8.0,10.0,22,0.00,,---,0.00,VWS V14.01,2013-07-09 19:06:00,
2013-07-09 13:07:00,76.8,35.1,30.00,WNW,294,8.0,10.0,22,0.00,,---,0.00,VWS V14.01,2013-07-09 19:07:00,
2013-07-09 13:08:00,76.6,36.1,30.00,West,277,2.0,9.0,23,0.00,,---,0.00,VWS V14.01,2013-07-09 19:08:00,
2013-07-09 13:09:00,76.5,34.9,30.00,West,277,1.0,2.0,22,0.00,,---,0.00,VWS V14.01,2013-07-09 19:09:00,
2013-07-09 13:10:00,76.4,34.8,30.00,West,277,7.0,9.0,22,0.00,,---,0.00,VWS V14.01,2013-07-09 19:10:00,
2013-07-09 13:11:00,76.3,34.7,30.00,West,269,4.0,7.0,22,0.00,,---,0.00,VWS V14.01,2013-07-09 19:11:00,
2013-07-09 13:12:00,76.3,34.7,30.00,West,269,4.0,7.0,22,0.00,,---,0.00,VWS V14.01,2013-07-09 19:12:00,
2013-07-09 13:13:00,76.3,35.8,30.00,NNW,331,2.0,6.0,23,0.00,,---,0.00,VWS V14.01,2013-07-09 19:13:00,
2013-07-09 13:14:00,76.3,35.8,30.00,NNW,331,0.0,3.0,23,0.00,,---,0.00,VWS V14.01,2013-07-09 19:14:00,
2013-07-09 13:15:00,76.4,35.9,30.00,West,279,6.0,6.0,23,0.00,,---,0.00,VWS V14.01,2013-07-09 19:15:00,
2013-07-09 13:16:00,76.6,36.1,30.00,West,272,0.0,6.0,23,0.00,,---,0.00,VWS V14.01,2013-07-09 19:16:00,
2013-07-09 13:17:00,76.6,36.1,30.00,West,272,0.0,6.0,23,0.00,,---,0.00,VWS V14.01,2013-07-09 19:17:00,
2013-07-09 13:18:00,76.9,37.4,30.00,South,187,1.0,7.0,24,0.00,,---,0.00,VWS V14.01,2013-07-09 19:18:00,
2013-07-09 13:19:00,77.1,35.4,30.00,South,186,0.0,2.0,22,0.00,,---,0.00,VWS V14.01,2013-07-09 19:19:00,
2013-07-09 13:20:00,77.4,36.7,30.00,South,186,1.0,1.0,23,0.00,,---,0.00,VWS V14.01,2013-07-09 19:20:00,
2013-07-09 13:21:00,77.6,36.9,30.00,South,186,2.0,4.0,23,0.00,,---,0.00,VWS V14.01,2013-07-09 19:21:00,
2013-07-09 13:22:00,77.6,36.9,30.00,South,186,2.0,4.0,23,0.00,,---,0.00,VWS V14.01,2013-07-09 19:22:00,
2013-07-09 13:23:00,78.0,36.1,29.99,SW,219,2.0,7.0,22,0.00,,---,0.00,VWS V14.01,2013-07-09 19:23:00,
2013-07-09 13:24:00,78.2,35.1,30.00,West,264,5.0,7.0,21,0.00,,---,0.00,VWS V14.01,2013-07-09 19:24:00,
2013-07-09 13:25:00,78.2,35.1,29.99,West,263,5.0,8.0,21,0.00,,---,0.00,VWS V14.01,2013-07-09 19:25:00,
2013-07-09 13:26:00,78.2,35.1,29.99,WNW,283,12.0,18.0,21,0.00,,---,0.00,VWS V14.01,2013-07-09 19:26:00,
2013-07-09 13:27:00,78.2,35.1,29.99,WNW,283,12.0,18.0,21,0.00,,---,0.00,VWS V14.01,2013-07-09 19:27:00,
2013-07-09 13:28:00,77.9,34.9,29.99,WSW,246,7.0,13.0,21,0.00,,---,0.00,VWS V14.01,2013-07-09 19:28:00,
2013-07-09 13:29:00,77.7,34.7,29.99,SW,225,7.0,12.0,21,0.00,,---,0.00,VWS V14.01,2013-07-09 19:29:00,
2013-07-09 13:30:00,77.4,34.4,29.99,West,268,7.0,9.0,21,0.00,,---,0.00,VWS V14.01,2013-07-09 19:30:00,
2013-07-09 13:31:00,77.2,34.3,29.99,West,262,5.0,7.0,21,0.00,,---,0.00,VWS V14.01,2013-07-09 19:31:00,
2013-07-09 13:32:00,77.2,34.3,29.99,West,262,5.0,7.0,21,0.00,,---,0.00,VWS V14.01,2013-07-09 19:32:00,
2013-07-09 13:33:00,76.9,36.3,29.99,West,273,7.0,7.0,23,0.00,,---,0.00,VWS V14.01,2013-07-09 19:33:00,
2013-07-09 13:34:00,76.8,36.2,29.99,SW,229,4.0,7.0,23,0.00,,---,0.00,VWS V14.01,2013-07-09 19:34:00,
2013-07-09 13:35:00,76.8,35.1,29.99,WNW,284,5.0,7.0,22,0.00,,---,0.00,VWS V14.01,2013-07-09 19:35:00,
2013-07-09 13:36:00,76.8,34.0,29.99,WSW,237,0.0,6.0,21,0.00,,---,0.00,VWS V14.01,2013-07-09 19:36:00,
2013-07-09 13:37:00,76.8,34.0,29.99,WSW,237,0.0,6.0,21,0.00,,---,0.00,VWS V14.01,2013-07-09 19:37:00,
2013-07-09 13:38:00,76.9,35.2,29.99,SSW,196,7.0,8.0,22,0.00,,---,0.00,VWS V14.01,2013-07-09 19:38:00,
2013-07-09 13:39:00,77.0,35.3,29.99,WNW,283,9.0,12.0,22,0.00,,---,0.00,VWS V14.01,2013-07-09 19:39:00,
2013-07-09 13:40:00,76.9,35.2,29.99,WNW,299,12.0,12.0,22,0.00,,---,0.00,VWS V14.01,2013-07-09 19:40:00,
2013-07-09 13:41:00,76.8,35.1,29.99,West,260,13.0,13.0,22,0.00,,---,0.00,VWS V14.01,2013-07-09 19:41:00,
2013-07-09 13:42:00,76.8,35.1,29.99,West,260,13.0,13.0,22,0.00,,---,0.00,VWS V14.01,2013-07-09 19:42:00,
2013-07-09 13:43:00,76.6,35.0,29.99,West,259,5.0,9.0,22,0.00,,---,0.00,VWS V14.01,2013-07-09 19:43:00,
2013-07-09 13:44:00,76.5,34.9,29.99,WSW,256,7.0,9.0,22,0.00,,---,0.00,VWS V14.01,2013-07-09 19:44:00,
2013-07-09 13:45:00,76.5,34.9,29.99,West,281,9.0,12.0,22,0.00,,---,0.00,VWS V14.01,2013-07-09 19:45:00,
2013-07-09 13:46:00,76.6,35.0,29.99,SW,226,8.0,10.0,22,0.00,,---,0.00,VWS V14.01,2013-07-09 19:46:00,
2013-07-09 13:47:00,76.6,35.0,29.99,SW,226,8.0,10.0,22,0.00,,---,0.00,VWS V14.01,2013-07-09 19:47:00,
2013-07-09 13:48:00,77.1,35.4,29.98,West,274,9.0,9.0,22,0.00,,---,0.00,VWS V14.01,2013-07-09 19:48:00,
2013-07-09 13:49:00,77.3,34.4,29.98,West,276,6.0,12.0,21,0.00,,---,0.00,VWS V14.01,2013-07-09 19:49:00,
2013-07-09 13:50:00,77.5,35.7,29.99,West,276,1.0,6.0,22,0.00,,---,0.00,VWS V14.01,2013-07-09 19:50:00,
2013-07-09 13:51:00,77.6,35.8,29.99,NW,321,5.0,9.0,22,0.00,,---,0.00,VWS V14.01,2013-07-09 19:51:00,
2013-07-09 13:52:00,77.6,35.8,29.99,NW,321,5.0,9.0,22,0.00,,---,0.00,VWS V14.01,2013-07-09 19:52:00,
2013-07-09 13:53:00,78.0,33.7,29.99,West,264,9.0,11.0,20,0.00,,---,0.00,VWS V14.01,2013-07-09 19:53:00,
2013-07-09 13:54:00,78.1,33.8,29.99,WNW,286,2.0,9.0,20,0.00,,---,0.00,VWS V14.01,2013-07-09 19:54:00,
2013-07-09 13:55:00,78.2,33.9,29.98,SW,217,12.0,12.0,20,0.00,,---,0.00,VWS V14.01,2013-07-09 19:55:00,
2013-07-09 13:56:00,78.2,33.9,29.98,SW,217,6.0,16.0,20,0.00,,---,0.00,VWS V14.01,2013-07-09 19:56:00,
2013-07-09 13:57:00,78.2,33.9,29.98,SW,217,6.0,16.0,20,0.00,,---,0.00,VWS V14.01,2013-07-09 19:57:00,
2013-07-09 13:58:00,78.2,32.6,29.98,NNW,340,6.0,6.0,19,0.00,,---,0.00,VWS V14.01,2013-07-09 19:58:00,
2013-07-09 13:59:00,78.1,32.5,29.98,SSW,200,5.0,13.0,19,0.00,,---,0.00,VWS V14.01,2013-07-09 19:59:00,
2013-07-09 14:00:00,78.1,33.8,29.98,West,272,8.0,13.0,20,0.00,,---,0.00,VWS V14.01,2013-07-09 20:00:00,
2013-07-09 14:01:00,78.2,32.6,29.98,NNW,337,6.0,9.0,19,0.00,,---,0.00,VWS V14.01,2013-07-09 20:01:00,
2013-07-09 14:02:00,78.2,32.6,29.98,NNW,337,6.0,9.0,19,0.00,,---,0.00,VWS V14.01,2013-07-09 20:02:00,
2013-07-09 14:03:00,78.2,31.3,29.98,West,271,11.0,14.0,18,0.00,,---,0.00,VWS V14.01,2013-07-09 20:03:00,
2013-07-09 14:04:00,78.2,31.3,29.98,NNW,332,8.0,15.0,18,0.00,,---,0.00,VWS V14.01,2013-07-09 20:04:00,
2013-07-09 14:05:00,78.1,31.2,29.98,West,281,4.0,9.0,18,0.00,,---,0.00,VWS V14.01,2013-07-09 20:05:00,
2013-07-09 14:06:00,78.0,31.1,29.98,NW,317,7.0,7.0,18,0.00,,---,0.00,VWS V14.01,2013-07-09 20:06:00,
2013-07-09 14:07:00,78.0,31.1,29.98,NW,317,7.0,7.0,18,0.00,,---,0.00,VWS V14.01,2013-07-09 20:07:00,
2013-07-09 14:08:00,77.8,30.9,29.98,NW,306,0.0,7.0,18,0.00,,---,0.00,VWS V14.01,2013-07-09 20:08:00,
2013-07-09 14:09:00,77.7,33.5,29.98,West,277,5.0,12.0,20,0.00,,---,0.00,VWS V14.01,2013-07-09 20:09:00,
2013-07-09 14:10:00,77.6,32.1,29.98,WNW,295,8.0,11.0,19,0.00,,---,0.00,VWS V14.01,2013-07-09 20:10:00,
2013-07-09 14:11:00,77.6,32.1,29.98,SSW,211,5.0,9.0,19,0.00,,---,0.00,VWS V14.01,2013-07-09 20:11:00,
2013-07-09 14:12:00,77.6,32.1,29.98,SSW,211,5.0,9.0,19,0.00,,---,0.00,VWS V14.01,2013-07-09 20:12:00,
2013-07-09 14:13:00,77.4,33.2,29.98,SSW,211,5.0,7.0,20,0.00,,---,0.00,VWS V14.01,2013-07-09 20:13:00,
2013-07-09 14:14:00,77.3,34.4,29.98,SSW,211,7.0,9.0,21,0.00,,---,0.00,VWS V14.01,2013-07-09 20:14:00,
2013-07-09 14:15:00,77.3,34.4,29.98,SW,226,6.0,7.0,21,0.00,,---,0.00,VWS V14.01,2013-07-09 20:15:00,
2013-07-09 14:16:00,77.2,33.1,29.98,SW,214,8.0,9.0,20,0.00,,---,0.00,VWS V14.01,2013-07-09 20:16:00,
2013-07-09 14:17:00,77.2,33.1,29.98,SW,214,8.0,9.0,20,0.00,,---,0.00,VWS V14.01,2013-07-09 20:17:00,
2013-07-09 14:18:00,77.0,32.9,29.98,SSW,208,3.0,9.0,20,0.00,,---,0.00,VWS V14.01,2013-07-09 20:18:00,
2013-07-09 14:19:00,76.9,32.8,29.98,SSW,198,4.0,6.0,20,0.00,,---,0.00,VWS V14.01,2013-07-09 20:19:00,
2013-07-09 14:20:00,76.7,33.9,29.98,SSW,192,8.0,8.0,21,0.00,,---,0.00,VWS V14.01,2013-07-09 20:20:00,
2013-07-09 14:21:00,76.6,32.6,29.98,South,189,7.0,10.0,20,0.00,,---,0.00,VWS V14.01,2013-07-09 20:21:00,
2013-07-09 14:22:00,76.6,32.6,29.98,South,189,7.0,10.0,20,0.00,,---,0.00,VWS V14.01,2013-07-09 20:22:00,
2013-07-09 14:23:00,76.3,34.7,29.98,SSW,195,1.0,2.0,22,0.00,,---,0.00,VWS V14.01,2013-07-09 20:23:00,
2013-07-09 14:24:00,76.2,33.5,29.98,SSW,195,4.0,4.0,21,0.00,,---,0.00,VWS V14.01,2013-07-09 20:24:00,
2013-07-09 14:25:00,76.1,34.5,29.98,South,180,2.0,6.0,22,0.00,,---,0.00,VWS V14.01,2013-07-09 20:25:00,
2013-07-09 14:26:00,75.9,35.5,29.98,South,178,1.0,6.0,23,0.00,,---,0.00,VWS V14.01,2013-07-09 20:26:00,
2013-07-09 14:27:00,75.9,35.5,29.98,South,178,1.0,6.0,23,0.00,,---,0.00,VWS V14.01,2013-07-09 20:27:00,
2013-07-09 14:28:00,75.5,37.2,29.98,South,169,6.0,6.0,25,0.00,,---,0.00,VWS V14.01,2013-07-09 20:28:00,
2013-07-09 14:29:00,75.2,37.0,29.98,SSE,156,7.0,10.0,25,0.00,,---,0.00,VWS V14.01,2013-07-09 20:29:00,
2013-07-09 14:30:00,75.0,37.8,29.99,SSE,153,6.0,8.0,26,0.00,,---,0.00,VWS V14.01,2013-07-09 20:30:00,
2013-07-09 14:31:00,74.8,37.7,29.99,SE,140,5.0,7.0,26,0.00,,---,0.00,VWS V14.01,2013-07-09 20:31:00,
2013-07-09 14:32:00,74.8,37.7,29.99,SE,140,5.0,7.0,26,0.00,,---,0.00,VWS V14.01,2013-07-09 20:32:00,
2013-07-09 14:33:00,74.4,37.3,29.99,SSE,159,6.0,6.0,26,0.00,,---,0.00,VWS V14.01,2013-07-09 20:33:00,
2013-07-09 14:34:00,74.2,37.1,29.99,SSE,159,1.0,7.0,26,0.00,,---,0.00,VWS V14.01,2013-07-09 20:34:00,
2013-07-09 14:35:00,74.0,37.9,29.99,SSE,164,2.0,7.0,27,0.00,,---,0.00,VWS V14.01,2013-07-09 20:35:00,
2013-07-09 14:36:00,73.9,36.9,29.99,SE,134,5.0,6.0,26,0.00,,---,0.00,VWS V14.01,2013-07-09 20:36:00,
2013-07-09 14:37:00,73.9,36.9,29.99,SE,134,5.0,6.0,26,0.00,,---,0.00,VWS V14.01,2013-07-09 20:37:00,
2013-07-09 14:38:00,73.6,37.6,29.99,SE,126,7.0,7.0,27,0.00,,---,0.00,VWS V14.01,2013-07-09 20:38:00,
2013-07-09 14:39:00,73.5,36.5,30.00,South,179,11.0,11.0,26,0.00,,---,0.00,VWS V14.01,2013-07-09 20:39:00,
2013-07-09 14:40:00,73.3,36.4,30.00,SSW,194,3.0,11.0,26,0.00,,---,0.00,VWS V14.01,2013-07-09 20:40:00,
2013-07-09 14:41:00,73.2,36.3,30.00,SSW,206,5.0,6.0,26,0.00,,---,0.00,VWS V14.01,2013-07-09 20:41:00,
2013-07-09 14:42:00,73.2,36.3,30.00,SSW,206,5.0,6.0,26,0.00,,---,0.00,VWS V14.01,2013-07-09 20:42:00,
2013-07-09 14:43:00,72.9,36.0,30.00,SSW,192,10.0,14.0,26,0.00,,---,0.00,VWS V14.01,2013-07-09 20:43:00,
2013-07-09 14:44:00,72.8,36.9,30.00,South,180,4.0,10.0,27,0.00,,---,0.00,VWS V14.01,2013-07-09 20:44:00,
2013-07-09 14:45:00,72.6,36.7,30.00,SSW,198,6.0,9.0,27,0.00,,---,0.00,VWS V14.01,2013-07-09 20:45:00,
2013-07-09 14:46:00,72.5,36.7,30.00,South,184,4.0,6.0,27,0.00,,---,0.00,VWS V14.01,2013-07-09 20:46:00,
2013-07-09 14:47:00,72.5,36.7,30.00,South,184,4.0,6.0,27,0.00,,---,0.00,VWS V14.01,2013-07-09 20:47:00,
2013-07-09 14:48:00,72.3,37.4,30.00,SE,126,0.0,7.0,28,0.00,,---,0.00,VWS V14.01,2013-07-09 20:48:00,
2013-07-09 14:49:00,72.2,37.3,30.00,SE,126,0.0,5.0,28,0.00,,---,0.00,VWS V14.01,2013-07-09 20:49:00,
2013-07-09 14:50:00,72.1,37.2,30.00,SE,134,7.0,7.0,28,0.00,,---,0.00,VWS V14.01,2013-07-09 20:50:00,
2013-07-09 14:51:00,72.0,36.2,30.00,South,180,9.0,9.0,27,0.00,,---,0.00,VWS V14.01,2013-07-09 20:51:00,
2013-07-09 14:52:00,72.0,36.2,30.00,South,180,9.0,9.0,27,0.00,,---,0.00,VWS V14.01,2013-07-09 20:52:00,
2013-07-09 14:53:00,71.8,36.0,30.00,South,170,5.0,12.0,27,0.00,,---,0.00,VWS V14.01,2013-07-09 20:53:00,
2013-07-09 14:54:00,71.7,34.0,30.00,SSE,168,8.0,10.0,25,0.00,,---,0.00,VWS V14.01,2013-07-09 20:54:00,
2013-07-09 14:55:00,71.6,34.0,30.00,SE,126,8.0,9.0,25,0.00,,---,0.00,VWS V14.01,2013-07-09 20:55:00,
2013-07-09 14:56:00,71.5,32.8,30.00,SSE,150,2.0,9.0,24,0.00,,---,0.00,VWS V14.01,2013-07-09 20:56:00,
2013-07-09 14:57:00,71.5,32.8,30.00,SSE,150,2.0,9.0,24,0.00,,---,0.00,VWS V14.01,2013-07-09 20:57:00,
2013-07-09 14:58:00,71.2,35.5,30.00,SE,125,4.0,14.0,27,0.00,,---,0.00,VWS V14.01,2013-07-09 20:58:00,
2013-07-09 14:59:00,71.0,35.4,30.00,SE,126,9.0,10.0,27,0.00,,---,0.00,VWS V14.01,2013-07-09 20:59:00,
2013-07-09 15:00:00,70.8,35.2,30.01,SE,134,2.0,9.0,27,0.00,,---,0.00,VWS V14.01,2013-07-09 21:00:00,
2013-07-09 15:01:00,70.7,35.1,30.01,SE,134,1.0,4.0,27,0.00,,---,0.00,VWS V14.01,2013-07-09 21:01:00,
2013-07-09 15:02:00,70.6,36.8,30.01,SE,134,0.0,1.0,29,0.00,,---,0.00,VWS V14.01,2013-07-09 21:02:00,
2013-07-09 15:03:00,70.7,35.1,30.01,SE,134,1.0,4.0,27,0.00,,---,0.00,VWS V14.01,2013-07-09 21:03:00,
2013-07-09 15:04:00,70.4,35.8,30.00,NNW,345,9.0,9.0,28,0.00,,---,0.00,VWS V14.01,2013-07-09 21:04:00,
2013-07-09 15:05:00,70.4,34.9,30.00,NNE,19,9.0,10.0,27,0.00,,---,0.00,VWS V14.01,2013-07-09 21:05:00,
2013-07-09 15:06:00,70.4,34.9,30.00,North,355,14.0,19.0,27,0.00,,---,0.00,VWS V14.01,2013-07-09 21:06:00,
2013-07-09 15:07:00,70.4,34.9,30.00,North,355,14.0,19.0,27,0.00,,---,0.00,VWS V14.01,2013-07-09 21:07:00,
2013-07-09 15:08:00,70.2,32.8,29.99,NE,44,7.0,16.0,25,0.00,,---,0.00,VWS V14.01,2013-07-09 21:08:00,
2013-07-09 15:09:00,70.1,32.7,30.00,NNE,26,5.0,7.0,25,0.00,,---,0.00,VWS V14.01,2013-07-09 21:09:00,
2013-07-09 15:10:00,70.1,32.7,30.00,North,10,9.0,13.0,25,0.00,,---,0.00,VWS V14.01,2013-07-09 21:10:00,
2013-07-09 15:11:00,70.1,32.7,30.00,North,10,7.0,12.0,25,0.00,,---,0.00,VWS V14.01,2013-07-09 21:11:00,
2013-07-09 15:12:00,70.1,32.7,30.00,North,10,7.0,12.0,25,0.00,,---,0.00,VWS V14.01,2013-07-09 21:12:00,
2013-07-09 15:13:00,70.2,31.8,30.00,NNW,343,5.0,5.0,24,0.00,,---,0.00,VWS V14.01,2013-07-09 21:13:00,
2013-07-09 15:14:00,70.3,32.8,30.00,NNW,336,4.0,5.0,25,0.00,,---,0.00,VWS V14.01,2013-07-09 21:14:00,
2013-07-09 15:15:00,70.4,31.9,30.00,NNW,328,1.0,5.0,24,0.00,,---,0.00,VWS V14.01,2013-07-09 21:15:00,
2013-07-09 15:16:00,70.6,33.1,30.00,WNW,300,5.0,5.0,25,0.00,,---,0.00,VWS V14.01,2013-07-09 21:16:00,
2013-07-09 15:17:00,70.8,33.3,30.00,WSW,242,5.0,6.0,25,0.00,,---,0.00,VWS V14.01,2013-07-09 21:17:00,
2013-07-09 15:18:00,70.6,33.1,30.00,WNW,300,5.0,5.0,25,0.00,,---,0.00,VWS V14.01,2013-07-09 21:18:00,
2013-07-09 15:19:00,71.3,32.7,30.00,WSW,242,2.0,4.0,24,0.00,,---,0.00,VWS V14.01,2013-07-09 21:19:00,
2013-07-09 15:20:00,71.7,34.0,30.00,WSW,242,1.0,6.0,25,0.00,,---,0.00,VWS V14.01,2013-07-09 21:20:00,
2013-07-09 15:21:00,72.1,34.4,29.99,WSW,242,1.0,5.0,25,0.00,,---,0.00,VWS V14.01,2013-07-09 21:21:00,
2013-07-09 15:22:00,72.5,33.7,30.00,WSW,242,3.0,5.0,24,0.00,,---,0.00,VWS V14.01,2013-07-09 21:22:00,
2013-07-09 15:23:00,72.2,34.5,29.99,WSW,242,0.0,1.0,25,0.00,,---,0.00,VWS V14.01,2013-07-09 21:23:00,
2013-07-09 15:24:00,73.1,33.1,29.99,ENE,57,0.0,4.0,23,0.00,,---,0.00,VWS V14.01,2013-07-09 21:24:00,
2013-07-09 15:25:00,73.4,33.4,29.99,South,174,6.0,6.0,23,0.00,,---,0.00,VWS V14.01,2013-07-09 21:25:00,
2013-07-09 15:26:00,73.8,35.8,29.99,NW,307,12.0,12.0,25,0.00,,---,0.00,VWS V14.01,2013-07-09 21:26:00,
2013-07-09 15:27:00,74.2,34.1,29.99,WSW,252,2.0,13.0,23,0.00,,---,0.00,VWS V14.01,2013-07-09 21:27:00,
2013-07-09 15:28:00,73.9,35.9,29.99,WNW,288,13.0,13.0,25,0.00,,---,0.00,VWS V14.01,2013-07-09 21:28:00,
2013-07-09 15:29:00,75.1,34.8,29.99,SW,219,4.0,8.0,23,0.00,,---,0.00,VWS V14.01,2013-07-09 21:29:00,
2013-07-09 15:30:00,75.5,32.9,29.99,WSW,243,6.0,13.0,21,0.00,,---,0.00,VWS V14.01,2013-07-09 21:30:00,
2013-07-09 15:31:00,75.8,33.1,29.99,WSW,238,10.0,13.0,21,0.00,,---,0.00,VWS V14.01,2013-07-09 21:31:00,
2013-07-09 15:32:00,76.1,32.2,29.99,WSW,241,7.0,10.0,20,0.00,,---,0.00,VWS V14.01,2013-07-09 21:32:00,
2013-07-09 15:33:00,76.0,33.3,29.99,SW,223,8.0,10.0,21,0.00,,---,0.00,VWS V14.01,2013-07-09 21:33:00,
2013-07-09 15:34:00,76.4,33.6,29.99,WSW,249,1.0,1.0,21,0.00,,---,0.00,VWS V14.01,2013-07-09 21:34:00,
2013-07-09 15:35:00,76.6,33.8,29.99,WSW,249,2.0,4.0,21,0.00,,---,0.00,VWS V14.01,2013-07-09 21:35:00,
2013-07-09 15:36:00,76.8,32.7,29.99,NW,324,2.0,5.0,20,0.00,,---,0.00,VWS V14.01,2013-07-09 21:36:00,
2013-07-09 15:37:00,76.9,34.0,29.99,SSW,207,1.0,6.0,21,0.00,,---,0.00,VWS V14.01,2013-07-09 21:37:00,
2013-07-09 15:38:00,76.8,32.7,29.99,SSW,207,6.0,6.0,20,0.00,,---,0.00,VWS V14.01,2013-07-09 21:38:00,
2013-07-09 15:39:00,77.4,34.4,29.99,WNW,297,12.0,12.0,21,0.00,,---,0.00,VWS V14.01,2013-07-09 21:39:00,
2013-07-09 15:40:00,77.5,33.3,29.99,WNW,294,7.0,15.0,20,0.00,,---,0.00,VWS V14.01,2013-07-09 21:40:00,
2013-07-09 15:41:00,77.6,33.4,29.99,SW,236,2.0,10.0,20,0.00,,---,0.00,VWS V14.01,2013-07-09 21:41:00,
2013-07-09 15:42:00,77.7,34.7,29.99,SSW,211,10.0,10.0,21,0.00,,---,0.00,VWS V14.01,2013-07-09 21:42:00,
2013-07-09 15:43:00,77.6,33.4,29.99,WNW,288,4.0,7.0,20,0.00,,---,0.00,VWS V14.01,2013-07-09 21:43:00,
2013-07-09 15:44:00,77.7,34.7,29.99,SSW,208,7.0,10.0,21,0.00,,---,0.00,VWS V14.01,2013-07-09 21:44:00,
2013-07-09 15:45:00,77.7,34.7,29.99,SW,231,5.0,12.0,21,0.00,,---,0.00,VWS V14.01,2013-07-09 21:45:00,
2013-07-09 15:46:00,77.7,34.7,29.99,WSW,239,4.0,9.0,21,0.00,,---,0.00,VWS V14.01,2013-07-09 21:46:00,
2013-07-09 15:47:00,77.8,36.0,29.99,WSW,247,6.0,11.0,22,0.00,,---,0.00,VWS V14.01,2013-07-09 21:47:00,
2013-07-09 15:48:00,77.8,36.0,29.99,West,275,7.0,7.0,22,0.00,,---,0.00,VWS V14.01,2013-07-09 21:48:00,
2013-07-09 15:49:00,78.1,35.0,29.99,SSW,202,6.0,9.0,21,0.00,,---,0.00,VWS V14.01,2013-07-09 21:49:00,
2013-07-09 15:50:00,78.2,35.1,29.99,West,275,6.0,14.0,21,0.00,,---,0.00,VWS V14.01,2013-07-09 21:50:00,
2013-07-09 15:52:00,78.6,35.4,29.99,WSW,258,7.0,13.0,21,0.00,,---,0.00,VWS V14.01,2013-07-09 21:52:00,
2013-07-09 15:53:00,78.5,35.4,29.99,WSW,247,12.0,12.0,21,0.00,,---,0.00,VWS V14.01,2013-07-09 21:53:00,
2013-07-09 15:54:00,78.8,34.4,29.99,SW,224,11.0,13.0,20,0.00,,---,0.00,VWS V14.01,2013-07-09 21:54:00,
2013-07-09 15:55:00,78.8,33.1,29.99,WSW,248,3.0,11.0,19,0.00,,---,0.00,VWS V14.01,2013-07-09 21:55:00,
2013-07-09 15:56:00,78.8,33.1,29.99,SSW,207,7.0,10.0,19,0.00,,---,0.00,VWS V14.01,2013-07-09 21:56:00,
2013-07-09 15:57:00,78.8,34.4,29.99,WNW,285,11.0,11.0,20,0.00,,---,0.00,VWS V14.01,2013-07-09 21:57:00,
2013-07-09 15:58:00,78.8,34.4,29.99,SSW,198,5.0,9.0,20,0.00,,---,0.00,VWS V14.01,2013-07-09 21:58:00,
2013-07-09 16:08:00,78.4,35.3,29.99,West,270,3.0,6.0,21,0.00,,---,0.00,VWS V14.01,2013-07-09 22:08:00,
2013-07-09 16:13:00,76.2,35.7,29.99,SW,215,1.0,2.0,23,0.00,,---,0.00,VWS V14.01,2013-07-09 22:13:00,
2013-07-09 16:18:00,75.4,37.2,29.99,SSE,162,0.0,7.0,25,0.00,,---,0.00,VWS V14.01,2013-07-09 22:18:00,
2013-07-09 16:23:00,75.7,37.4,29.99,South,175,2.0,5.0,25,0.00,,---,0.00,VWS V14.01,2013-07-09 22:23:00,
2013-07-09 16:28:00,75.5,38.2,29.99,SSW,195,5.0,12.0,26,0.00,,---,0.00,VWS V14.01,2013-07-09 22:28:00,
2013-07-09 16:34:00,76.4,39.0,29.98,West,273,8.0,8.0,26,0.00,,---,0.00,VWS V14.01,2013-07-09 22:34:00,
2013-07-09 16:39:00,77.6,38.0,29.98,NW,307,3.0,3.0,24,0.00,,---,0.00,VWS V14.01,2013-07-09 22:39:00,
2013-07-09 16:44:00,78.1,37.3,29.98,NNW,328,0.0,4.0,23,0.00,,---,0.00,VWS V14.01,2013-07-09 22:44:00,
2013-07-09 16:49:00,78.1,37.3,29.97,West,277,6.0,15.0,23,0.00,,---,0.00,VWS V14.01,2013-07-09 22:49:00,
2013-07-09 16:54:00,78.1,37.3,29.97,WNW,303,5.0,8.0,23,0.00,,---,0.00,VWS V14.01,2013-07-09 22:54:00,
2013-07-09 16:59:00,77.9,37.2,29.97,WSW,243,3.0,8.0,23,0.00,,---,0.00,VWS V14.01,2013-07-09 22:59:00,
2013-07-09 17:04:00,78.0,37.2,29.97,NNW,329,7.0,14.0,23,0.00,,---,0.00,VWS V14.01,2013-07-09 23:04:00,
2013-07-09 17:09:00,78.2,37.4,29.97,West,274,10.0,11.0,23,0.00,,---,0.00,VWS V14.01,2013-07-09 23:09:00,
2013-07-09 17:14:00,77.7,37.0,29.97,WSW,253,12.0,15.0,23,0.00,,---,0.00,VWS V14.01,2013-07-09 23:14:00,
2013-07-09 17:19:00,76.9,36.3,29.97,WNW,288,6.0,12.0,23,0.00,,---,0.00,VWS V14.01,2013-07-09 23:19:00,
2013-07-09 17:24:00,76.5,36.0,29.97,West,264,6.0,12.0,23,0.00,,---,0.00,VWS V14.01,2013-07-09 23:24:00,
2013-07-09 17:29:00,75.6,35.2,29.97,WNW,294,7.0,11.0,23,0.00,,---,0.00,VWS V14.01,2013-07-09 23:29:00,
2013-07-09 17:34:00,74.7,35.5,29.97,SW,229,10.0,12.0,24,0.00,,---,0.00,VWS V14.01,2013-07-09 23:34:00,
2013-07-09 17:40:00,74.0,35.0,29.98,WNW,288,3.0,4.0,24,0.00,,---,0.00,VWS V14.01,2013-07-09 23:40:00,
2013-07-09 17:45:00,73.8,35.8,29.98,WNW,288,4.0,7.0,25,0.00,,---,0.00,VWS V14.01,2013-07-09 23:45:00,
2013-07-09 17:50:00,73.7,36.7,29.98,NW,305,7.0,7.0,26,0.00,,---,0.00,VWS V14.01,2013-07-09 23:50:00,
2013-07-09 17:55:00,73.8,35.8,29.98,NNW,338,1.0,2.0,25,0.00,,---,0.00,VWS V14.01,2013-07-09 23:55:00,
2013-07-09 18:00:00,73.9,35.9,29.98,NNW,338,0.0,0.0,25,0.00,,---,0.00,VWS V14.01,2013-07-10 00:00:00,
2013-07-09 18:05:00,73.7,35.7,29.98,NNW,337,1.0,1.0,25,0.00,,---,0.00,VWS V14.01,2013-07-10 00:05:00,
2013-07-09 18:10:00,73.5,35.6,29.98,NNW,338,0.0,0.0,25,0.00,,---,0.00,VWS V14.01,2013-07-10 00:10:00,
2013-07-09 18:15:00,73.3,35.4,29.98,NNW,338,0.0,0.0,25,0.00,,---,0.00,VWS V14.01,2013-07-10 00:15:00,
2013-07-09 18:20:00,73.0,36.1,29.98,NNW,338,0.0,4.0,26,0.00,,---,0.00,VWS V14.01,2013-07-10 00:20:00,
2013-07-09 18:25:00,72.5,38.5,29.98,ESE,108,13.0,13.0,29,0.00,,---,0.00,VWS V14.01,2013-07-10 00:25:00,
2013-07-09 18:30:00,70.8,40.3,29.98,East,80,6.0,10.0,33,0.00,,---,0.00,VWS V14.01,2013-07-10 00:30:00,
2013-07-09 18:35:00,69.7,40.1,29.99,ESE,105,10.0,10.0,34,0.00,,---,0.00,VWS V14.01,2013-07-10 00:35:00,
2013-07-09 18:40:00,68.8,40.1,29.98,ESE,115,8.0,11.0,35,0.00,,---,0.00,VWS V14.01,2013-07-10 00:40:00,
2013-07-09 18:45:00,68.1,40.2,29.99,ESE,113,9.0,13.0,36,0.00,,---,0.00,VWS V14.01,2013-07-10 00:45:00,
2013-07-09 18:51:00,67.9,40.0,29.99,ESE,110,4.0,6.0,36,0.00,,---,0.00,VWS V14.01,2013-07-10 00:51:00,
2013-07-09 18:56:00,67.8,39.9,29.99,ESE,113,6.0,6.0,36,0.00,,---,0.00,VWS V14.01,2013-07-10 00:56:00,
2013-07-09 19:01:00,67.6,39.7,29.98,ESE,112,4.0,6.0,36,0.00,,---,0.00,VWS V14.01,2013-07-10 01:01:00,
2013-07-09 19:06:00,67.5,39.6,29.98,ESE,109,5.0,6.0,36,0.00,,---,0.00,VWS V14.01,2013-07-10 01:06:00,
2013-07-09 19:11:00,67.4,38.8,29.98,SE,128,7.0,9.0,35,0.00,,---,0.00,VWS V14.01,2013-07-10 01:11:00,
2013-07-09 19:16:00,67.4,38.8,29.98,SE,131,4.0,7.0,35,0.00,,---,0.00,VWS V14.01,2013-07-10 01:16:00,
2013-07-09 19:21:00,67.3,39.5,29.98,East,90,3.0,4.0,36,0.00,,---,0.00,VWS V14.01,2013-07-10 01:21:00,
2013-07-09 19:26:00,67.0,39.2,29.98,ESE,105,3.0,5.0,36,0.00,,---,0.00,VWS V14.01,2013-07-10 01:26:00,
2013-07-09 19:31:00,66.8,39.0,29.98,ESE,105,2.0,4.0,36,0.00,,---,0.00,VWS V14.01,2013-07-10 01:31:00,
2013-07-09 19:36:00,66.6,38.8,29.98,ESE,106,3.0,5.0,36,0.00,,---,0.00,VWS V14.01,2013-07-10 01:36:00,
2013-07-09 19:41:00,66.3,39.3,29.98,ESE,105,1.0,4.0,37,0.00,,---,0.00,VWS V14.01,2013-07-10 01:41:00,
2013-07-09 19:46:00,66.1,39.1,29.98,ESE,106,1.0,1.0,37,0.00,,---,0.00,VWS V14.01,2013-07-10 01:46:00,
2013-07-09 19:51:00,65.9,39.6,29.98,ESE,106,2.0,2.0,38,0.00,,---,0.00,VWS V14.01,2013-07-10 01:51:00,
2013-07-09 19:56:00,65.8,39.5,29.98,ESE,106,2.0,6.0,38,0.00,,---,0.00,VWS V14.01,2013-07-10 01:56:00,
2013-07-09 20:01:00,65.6,39.3,29.98,ESE,106,1.0,2.0,38,0.00,,---,0.00,VWS V14.01,2013-07-10 02:01:00,
2013-07-09 20:06:00,65.4,39.8,29.98,ESE,106,1.0,2.0,39,0.00,,---,0.00,VWS V14.01,2013-07-10 02:06:00,
2013-07-09 20:11:00,65.1,39.5,29.98,ESE,106,0.0,0.0,39,0.00,,---,0.00,VWS V14.01,2013-07-10 02:11:00,
2013-07-09 20:16:00,64.7,39.2,29.98,ESE,106,0.0,0.0,39,0.00,,---,0.00,VWS V14.01,2013-07-10 02:16:00,
2013-07-09 20:21:00,64.3,39.5,29.98,ESE,106,0.0,0.0,40,0.00,,---,0.00,VWS V14.01,2013-07-10 02:21:00,
2013-07-09 20:26:00,63.9,39.1,29.98,ESE,106,0.0,0.0,40,0.00,,---,0.00,VWS V14.01,2013-07-10 02:26:00,
2013-07-09 20:31:00,63.5,39.4,29.99,ESE,106,1.0,2.0,41,0.00,,---,0.00,VWS V14.01,2013-07-10 02:31:00,
2013-07-09 20:36:00,63.2,39.8,29.99,ESE,106,4.0,6.0,42,0.00,,---,0.00,VWS V14.01,2013-07-10 02:36:00,
2013-07-09 20:42:00,63.0,39.6,29.99,ESE,106,2.0,2.0,42,0.00,,---,0.00,VWS V14.01,2013-07-10 02:42:00,
2013-07-09 20:47:00,62.8,39.4,29.99,ESE,106,1.0,1.0,42,0.00,,---,0.00,VWS V14.01,2013-07-10 02:47:00,
2013-07-09 20:52:00,62.6,39.8,29.99,ESE,106,5.0,5.0,43,0.00,,---,0.00,VWS V14.01,2013-07-10 02:52:00,
2013-07-09 20:57:00,62.3,38.9,29.99,ESE,106,4.0,4.0,42,0.00,,---,0.00,VWS V14.01,2013-07-10 02:57:00,
2013-07-09 21:02:00,62.1,38.8,29.99,ESE,106,2.0,2.0,42,0.00,,---,0.00,VWS V14.01,2013-07-10 03:02:00,
2013-07-09 21:03:00,62.1,38.8,29.99,ESE,106,2.0,2.0,42,0.00,,---,0.00,VWS V14.01,2013-07-10 03:03:00,
2013-07-09 21:08:00,62.0,38.7,30.00,ESE,106,1.0,2.0,42,0.00,,---,0.00,VWS V14.01,2013-07-10 03:08:00,
2013-07-09 21:13:00,62.0,38.7,30.00,ESE,106,0.0,1.0,42,0.00,,---,0.00,VWS V14.01,2013-07-10 03:13:00,
2013-07-09 21:18:00,61.9,38.6,30.00,ESE,106,0.0,0.0,42,0.00,,---,0.00,VWS V14.01,2013-07-10 03:18:00,
2013-07-09 21:23:00,61.8,39.1,30.00,ESE,106,1.0,2.0,43,0.00,,---,0.00,VWS V14.01,2013-07-10 03:23:00,
2013-07-09 21:28:00,61.4,39.3,30.00,West,263,4.0,6.0,44,0.00,,---,0.00,VWS V14.01,2013-07-10 03:28:00,
2013-07-09 21:33:00,61.0,39.0,30.00,West,265,6.0,6.0,44,0.00,,---,0.00,VWS V14.01,2013-07-10 03:33:00,
2013-07-09 21:38:00,60.6,39.2,30.01,West,265,5.0,6.0,45,0.00,,---,0.00,VWS V14.01,2013-07-10 03:38:00,
2013-07-09 21:43:00,60.2,38.8,30.01,West,265,2.0,3.0,45,0.00,,---,0.00,VWS V14.01,2013-07-10 03:43:00,
2013-07-09 21:48:00,59.8,38.4,30.01,West,265,2.0,2.0,45,0.00,,---,0.00,VWS V14.01,2013-07-10 03:48:00,
2013-07-09 21:53:00,59.9,38.5,30.02,North,360,0.0,8.0,45,0.00,,---,0.00,VWS V14.01,2013-07-10 03:53:00,
2013-07-09 21:58:00,60.3,38.3,30.02,NNW,338,0.0,3.0,44,0.00,,---,0.00,VWS V14.01,2013-07-10 03:58:00,
2013-07-09 22:01:00,60.4,38.4,30.02,North,355,5.0,6.0,44,0.00,,---,0.00,VWS V14.01,2013-07-10 04:01:00,
2013-07-09 22:02:00,60.4,38.4,30.02,North,355,2.0,3.0,44,0.00,,---,0.00,VWS V14.01,2013-07-10 04:02:00,
2013-07-09 22:07:00,60.5,37.9,30.02,North,350,0.0,1.0,43,0.00,,---,0.00,VWS V14.01,2013-07-10 04:07:00,
2013-07-09 22:12:00,60.6,38.0,30.02,NW,311,4.0,7.0,43,0.00,,---,0.00,VWS V14.01,2013-07-10 04:12:00,
2013-07-09 22:17:00,60.6,38.0,30.02,NW,317,5.0,7.0,43,0.00,,---,0.00,VWS V14.01,2013-07-10 04:17:00,
2013-07-09 22:22:00,60.7,37.5,30.01,NNW,331,9.0,9.0,42,0.00,,---,0.00,VWS V14.01,2013-07-10 04:22:00,
2013-07-09 22:27:00,60.7,37.5,30.01,NW,318,5.0,8.0,42,0.00,,---,0.00,VWS V14.01,2013-07-10 04:27:00,
2013-07-09 22:32:00,60.7,37.5,30.01,NW,324,8.0,9.0,42,0.00,,---,0.00,VWS V14.01,2013-07-10 04:32:00,
2013-07-09 22:37:00,60.7,37.5,30.01,NW,324,4.0,5.0,42,0.00,,---,0.00,VWS V14.01,2013-07-10 04:37:00,
2013-07-09 22:42:00,60.6,37.4,30.01,NNW,329,8.0,8.0,42,0.00,,---,0.00,VWS V14.01,2013-07-10 04:42:00,
2013-07-09 22:47:00,60.5,37.3,30.02,North,351,2.0,3.0,42,0.00,,---,0.00,VWS V14.01,2013-07-10 04:47:00,
2013-07-09 22:52:00,60.5,37.3,30.02,North,10,5.0,7.0,42,0.00,,---,0.00,VWS V14.01,2013-07-10 04:52:00,
2013-07-09 22:57:00,60.4,37.2,30.02,NNW,348,5.0,8.0,42,0.00,,---,0.00,VWS V14.01,2013-07-10 04:57:00,
2013-07-09 23:02:00,60.3,37.1,30.02,North,355,0.0,4.0,42,0.00,,---,0.00,VWS V14.01,2013-07-10 05:02:00,
2013-07-09 23:07:00,60.2,37.0,30.02,NW,316,6.0,6.0,42,0.00,,---,0.00,VWS V14.01,2013-07-10 05:07:00,
2013-07-09 23:12:00,60.1,37.0,30.02,NNW,330,2.0,6.0,42,0.00,,---,0.00,VWS V14.01,2013-07-10 05:12:00,
2013-07-09 23:17:00,60.1,37.0,30.02,North,355,6.0,7.0,42,0.00,,---,0.00,VWS V14.01,2013-07-10 05:17:00,
2013-07-09 23:22:00,60.1,37.0,30.02,NNW,338,5.0,5.0,42,0.00,,---,0.00,VWS V14.01,2013-07-10 05:22:00,
2013-07-09 23:27:00,60.1,37.0,30.02,NNW,327,7.0,7.0,42,0.00,,---,0.00,VWS V14.01,2013-07-10 05:27:00,
2013-07-09 23:32:00,60.0,36.9,30.02,NW,311,3.0,6.0,42,0.00,,---,0.00,VWS V14.01,2013-07-10 05:32:00,
2013-07-09 23:37:00,60.0,36.9,30.02,NW,308,7.0,9.0,42,0.00,,---,0.00,VWS V14.01,2013-07-10 05:37:00,
2013-07-09 23:42:00,60.0,36.2,30.02,NW,309,5.0,8.0,41,0.00,,---,0.00,VWS V14.01,2013-07-10 05:42:00,
2013-07-09 23:47:00,60.0,36.2,30.02,NNW,328,6.0,8.0,41,0.00,,---,0.00,VWS V14.01,2013-07-10 05:47:00,
2013-07-09 23:52:00,59.9,36.8,30.02,NNW,333,2.0,5.0,42,0.00,,---,0.00,VWS V14.01,2013-07-10 05:52:00,
2013-07-09 23:57:00,59.7,36.6,30.02,NNW,335,4.0,6.0,42,0.00,,---,0.00,VWS V14.01,2013-07-10 05:57:00,